<?xml version="1.0" encoding="UTF-8" standalone="no" ?>
<gpx xmlns="http://www.topografix.com/GPX/1/1" creator="www.plotaroute.com" version="1.1"  xmlns:xsi="http://www.w3.org/2001/XMLSchema-instance" xsi:schemaLocation="http://www.topografix.com/GPX/1/1 http://www.topografix.com/GPX/1/1/gpx.xsd">
<metadata>
<desc>Route created on plotaroute.com</desc>
</metadata>
<trk>
<name>Burma-Psalim 28 Km.</name>
<trkseg>
<trkpt lat="31.81077" lon="35.01446">
<ele>295</ele>
<time>2022-08-24T00:00:00Z</time></trkpt>
<trkpt lat="31.81079" lon="35.01447">
<ele>294</ele>
<time>2022-08-24T00:00:00Z</time></trkpt>
<trkpt lat="31.81098" lon="35.01413">
<ele>294</ele>
<time>2022-08-24T00:00:07Z</time></trkpt>
<trkpt lat="31.81129" lon="35.0136">
<ele>293</ele>
<time>2022-08-24T00:00:18Z</time></trkpt>
<trkpt lat="31.81142" lon="35.01331">
<ele>291</ele>
<time>2022-08-24T00:00:24Z</time></trkpt>
<trkpt lat="31.81151" lon="35.01289">
<ele>291</ele>
<time>2022-08-24T00:00:31Z</time></trkpt>
<trkpt lat="31.81174" lon="35.01214">
<ele>290</ele>
<time>2022-08-24T00:00:45Z</time></trkpt>
<trkpt lat="31.81198" lon="35.01112">
<ele>289</ele>
<time>2022-08-24T00:01:03Z</time></trkpt>
<trkpt lat="31.81209" lon="35.01071">
<ele>288</ele>
<time>2022-08-24T00:01:10Z</time></trkpt>
<trkpt lat="31.81215" lon="35.01057">
<ele>287</ele>
<time>2022-08-24T00:01:13Z</time></trkpt>
<trkpt lat="31.81214" lon="35.01048">
<ele>286</ele>
<time>2022-08-24T00:01:14Z</time></trkpt>
<trkpt lat="31.81222" lon="35.00985">
<ele>283</ele>
<time>2022-08-24T00:01:25Z</time></trkpt>
<trkpt lat="31.81227" lon="35.00892">
<ele>281</ele>
<time>2022-08-24T00:01:41Z</time></trkpt>
<trkpt lat="31.8123" lon="35.00859">
<ele>280</ele>
<time>2022-08-24T00:01:47Z</time></trkpt>
<trkpt lat="31.81231" lon="35.00804">
<ele>278</ele>
<time>2022-08-24T00:01:56Z</time></trkpt>
<trkpt lat="31.81234" lon="35.00723">
<ele>276</ele>
<time>2022-08-24T00:02:10Z</time></trkpt>
<trkpt lat="31.81237" lon="35.00684">
<ele>276</ele>
<time>2022-08-24T00:02:17Z</time></trkpt>
<trkpt lat="31.81243" lon="35.00596">
<ele>276</ele>
<time>2022-08-24T00:02:32Z</time></trkpt>
<trkpt lat="31.81248" lon="35.00568">
<ele>276</ele>
<time>2022-08-24T00:02:37Z</time></trkpt>
<trkpt lat="31.81248" lon="35.00523">
<ele>274</ele>
<time>2022-08-24T00:02:44Z</time></trkpt>
<trkpt lat="31.81249" lon="35.00513">
<ele>274</ele>
<time>2022-08-24T00:02:46Z</time></trkpt>
<trkpt lat="31.81207" lon="35.00537">
<ele>272</ele>
<time>2022-08-24T00:02:55Z</time></trkpt>
<trkpt lat="31.812" lon="35.00538">
<ele>272</ele>
<time>2022-08-24T00:02:57Z</time></trkpt>
<trkpt lat="31.81193" lon="35.00542">
<ele>272</ele>
<time>2022-08-24T00:02:58Z</time></trkpt>
<trkpt lat="31.81179" lon="35.00541">
<ele>271</ele>
<time>2022-08-24T00:03:01Z</time></trkpt>
<trkpt lat="31.81169" lon="35.00529">
<ele>270</ele>
<time>2022-08-24T00:03:04Z</time></trkpt>
<trkpt lat="31.81162" lon="35.0051">
<ele>269</ele>
<time>2022-08-24T00:03:07Z</time></trkpt>
<trkpt lat="31.81154" lon="35.00447">
<ele>265</ele>
<time>2022-08-24T00:03:18Z</time></trkpt>
<trkpt lat="31.81152" lon="35.00439">
<ele>264</ele>
<time>2022-08-24T00:03:20Z</time></trkpt>
<trkpt lat="31.81146" lon="35.00424">
<ele>263</ele>
<time>2022-08-24T00:03:23Z</time></trkpt>
<trkpt lat="31.81138" lon="35.00415">
<ele>263</ele>
<time>2022-08-24T00:03:25Z</time></trkpt>
<trkpt lat="31.81124" lon="35.00401">
<ele>263</ele>
<time>2022-08-24T00:03:28Z</time></trkpt>
<trkpt lat="31.81104" lon="35.00385">
<ele>263</ele>
<time>2022-08-24T00:03:33Z</time></trkpt>
<trkpt lat="31.81094" lon="35.00379">
<ele>263</ele>
<time>2022-08-24T00:03:36Z</time></trkpt>
<trkpt lat="31.81077" lon="35.00375">
<ele>263</ele>
<time>2022-08-24T00:03:39Z</time></trkpt>
<trkpt lat="31.81069" lon="35.00375">
<ele>263</ele>
<time>2022-08-24T00:03:41Z</time></trkpt>
<trkpt lat="31.81038" lon="35.00385">
<ele>264</ele>
<time>2022-08-24T00:03:47Z</time></trkpt>
<trkpt lat="31.81018" lon="35.00394">
<ele>265</ele>
<time>2022-08-24T00:03:51Z</time></trkpt>
<trkpt lat="31.81007" lon="35.00403">
<ele>265</ele>
<time>2022-08-24T00:03:54Z</time></trkpt>
<trkpt lat="31.80965" lon="35.00455">
<ele>271</ele>
<time>2022-08-24T00:04:06Z</time></trkpt>
<trkpt lat="31.80954" lon="35.00472">
<ele>272</ele>
<time>2022-08-24T00:04:10Z</time></trkpt>
<trkpt lat="31.80939" lon="35.00505">
<ele>275</ele>
<time>2022-08-24T00:04:16Z</time></trkpt>
<trkpt lat="31.80933" lon="35.00511">
<ele>276</ele>
<time>2022-08-24T00:04:18Z</time></trkpt>
<trkpt lat="31.80924" lon="35.00517">
<ele>276</ele>
<time>2022-08-24T00:04:20Z</time></trkpt>
<trkpt lat="31.80906" lon="35.00516">
<ele>275</ele>
<time>2022-08-24T00:04:23Z</time></trkpt>
<trkpt lat="31.80883" lon="35.00505">
<ele>273</ele>
<time>2022-08-24T00:04:28Z</time></trkpt>
<trkpt lat="31.80865" lon="35.00499">
<ele>272</ele>
<time>2022-08-24T00:04:32Z</time></trkpt>
<trkpt lat="31.80826" lon="35.00499">
<ele>271</ele>
<time>2022-08-24T00:04:40Z</time></trkpt>
<trkpt lat="31.808" lon="35.00486">
<ele>271</ele>
<time>2022-08-24T00:04:46Z</time></trkpt>
<trkpt lat="31.80784" lon="35.00475">
<ele>271</ele>
<time>2022-08-24T00:04:49Z</time></trkpt>
<trkpt lat="31.80767" lon="35.0047">
<ele>271</ele>
<time>2022-08-24T00:04:53Z</time></trkpt>
<trkpt lat="31.80746" lon="35.0047">
<ele>272</ele>
<time>2022-08-24T00:04:57Z</time></trkpt>
<trkpt lat="31.80682" lon="35.00504">
<ele>274</ele>
<time>2022-08-24T00:05:11Z</time></trkpt>
<trkpt lat="31.80691" lon="35.00499">
<ele>273</ele>
<time>2022-08-24T00:05:13Z</time></trkpt>
<trkpt lat="31.80685" lon="35.00494">
<ele>273</ele>
<time>2022-08-24T00:05:15Z</time></trkpt>
<trkpt lat="31.80676" lon="35.00481">
<ele>275</ele>
<time>2022-08-24T00:05:18Z</time></trkpt>
<trkpt lat="31.8067" lon="35.00465">
<ele>276</ele>
<time>2022-08-24T00:05:20Z</time></trkpt>
<trkpt lat="31.80667" lon="35.0045">
<ele>278</ele>
<time>2022-08-24T00:05:23Z</time></trkpt>
<trkpt lat="31.80684" lon="35.00433">
<ele>277</ele>
<time>2022-08-24T00:05:28Z</time></trkpt>
<trkpt lat="31.80697" lon="35.00412">
<ele>278</ele>
<time>2022-08-24T00:05:32Z</time></trkpt>
<trkpt lat="31.80704" lon="35.00402">
<ele>278</ele>
<time>2022-08-24T00:05:34Z</time></trkpt>
<trkpt lat="31.80722" lon="35.00388">
<ele>278</ele>
<time>2022-08-24T00:05:39Z</time></trkpt>
<trkpt lat="31.80735" lon="35.00375">
<ele>278</ele>
<time>2022-08-24T00:05:42Z</time></trkpt>
<trkpt lat="31.80748" lon="35.00354">
<ele>279</ele>
<time>2022-08-24T00:05:46Z</time></trkpt>
<trkpt lat="31.80758" lon="35.00327">
<ele>282</ele>
<time>2022-08-24T00:05:51Z</time></trkpt>
<trkpt lat="31.8076" lon="35.00324">
<ele>282</ele>
<time>2022-08-24T00:05:52Z</time></trkpt>
<trkpt lat="31.80772" lon="35.00315">
<ele>283</ele>
<time>2022-08-24T00:05:55Z</time></trkpt>
<trkpt lat="31.80773" lon="35.00315">
<ele>283</ele>
<time>2022-08-24T00:05:55Z</time></trkpt>
<trkpt lat="31.80772" lon="35.00315">
<ele>283</ele>
<time>2022-08-24T00:05:55Z</time></trkpt>
<trkpt lat="31.8076" lon="35.00324">
<ele>282</ele>
<time>2022-08-24T00:05:58Z</time></trkpt>
<trkpt lat="31.80758" lon="35.00327">
<ele>282</ele>
<time>2022-08-24T00:05:59Z</time></trkpt>
<trkpt lat="31.80758" lon="35.00299">
<ele>287</ele>
<time>2022-08-24T00:06:04Z</time></trkpt>
<trkpt lat="31.80765" lon="35.00291">
<ele>288</ele>
<time>2022-08-24T00:06:06Z</time></trkpt>
<trkpt lat="31.80828" lon="35.00275">
<ele>285</ele>
<time>2022-08-24T00:06:18Z</time></trkpt>
<trkpt lat="31.80839" lon="35.00261">
<ele>287</ele>
<time>2022-08-24T00:06:22Z</time></trkpt>
<trkpt lat="31.80867" lon="35.00196">
<ele>297</ele>
<time>2022-08-24T00:06:34Z</time></trkpt>
<trkpt lat="31.8089" lon="35.00174">
<ele>298</ele>
<time>2022-08-24T00:06:40Z</time></trkpt>
<trkpt lat="31.80947" lon="35.00159">
<ele>293</ele>
<time>2022-08-24T00:06:52Z</time></trkpt>
<trkpt lat="31.80978" lon="35.00134">
<ele>292</ele>
<time>2022-08-24T00:06:59Z</time></trkpt>
<trkpt lat="31.80998" lon="35.00089">
<ele>295</ele>
<time>2022-08-24T00:07:08Z</time></trkpt>
<trkpt lat="31.81036" lon="34.99985">
<ele>300</ele>
<time>2022-08-24T00:07:27Z</time></trkpt>
<trkpt lat="31.81066" lon="34.99934">
<ele>301</ele>
<time>2022-08-24T00:07:38Z</time></trkpt>
<trkpt lat="31.81081" lon="34.99918">
<ele>300</ele>
<time>2022-08-24T00:07:42Z</time></trkpt>
<trkpt lat="31.81096" lon="34.99907">
<ele>300</ele>
<time>2022-08-24T00:07:45Z</time></trkpt>
<trkpt lat="31.81134" lon="34.99895">
<ele>298</ele>
<time>2022-08-24T00:07:53Z</time></trkpt>
<trkpt lat="31.81189" lon="34.99841">
<ele>300</ele>
<time>2022-08-24T00:08:08Z</time></trkpt>
<trkpt lat="31.81237" lon="34.99775">
<ele>300</ele>
<time>2022-08-24T00:08:22Z</time></trkpt>
<trkpt lat="31.81262" lon="34.9976">
<ele>298</ele>
<time>2022-08-24T00:08:28Z</time></trkpt>
<trkpt lat="31.81276" lon="34.9975">
<ele>297</ele>
<time>2022-08-24T00:08:31Z</time></trkpt>
<trkpt lat="31.81289" lon="34.99736">
<ele>294</ele>
<time>2022-08-24T00:08:35Z</time></trkpt>
<trkpt lat="31.81307" lon="34.99713">
<ele>292</ele>
<time>2022-08-24T00:08:40Z</time></trkpt>
<trkpt lat="31.81317" lon="34.99688">
<ele>291</ele>
<time>2022-08-24T00:08:45Z</time></trkpt>
<trkpt lat="31.81318" lon="34.99678">
<ele>291</ele>
<time>2022-08-24T00:08:47Z</time></trkpt>
<trkpt lat="31.81317" lon="34.99661">
<ele>291</ele>
<time>2022-08-24T00:08:49Z</time></trkpt>
<trkpt lat="31.81312" lon="34.99649">
<ele>290</ele>
<time>2022-08-24T00:08:52Z</time></trkpt>
<trkpt lat="31.813" lon="34.99634">
<ele>288</ele>
<time>2022-08-24T00:08:55Z</time></trkpt>
<trkpt lat="31.81246" lon="34.99582">
<ele>284</ele>
<time>2022-08-24T00:09:09Z</time></trkpt>
<trkpt lat="31.81209" lon="34.99552">
<ele>281</ele>
<time>2022-08-24T00:09:18Z</time></trkpt>
<trkpt lat="31.8118" lon="34.99535">
<ele>279</ele>
<time>2022-08-24T00:09:25Z</time></trkpt>
<trkpt lat="31.81161" lon="34.99529">
<ele>278</ele>
<time>2022-08-24T00:09:29Z</time></trkpt>
<trkpt lat="31.8114" lon="34.99525">
<ele>277</ele>
<time>2022-08-24T00:09:33Z</time></trkpt>
<trkpt lat="31.81121" lon="34.99519">
<ele>276</ele>
<time>2022-08-24T00:09:37Z</time></trkpt>
<trkpt lat="31.81096" lon="34.99516">
<ele>276</ele>
<time>2022-08-24T00:09:42Z</time></trkpt>
<trkpt lat="31.81074" lon="34.99509">
<ele>276</ele>
<time>2022-08-24T00:09:46Z</time></trkpt>
<trkpt lat="31.81066" lon="34.99505">
<ele>276</ele>
<time>2022-08-24T00:09:48Z</time></trkpt>
<trkpt lat="31.81059" lon="34.99496">
<ele>277</ele>
<time>2022-08-24T00:09:50Z</time></trkpt>
<trkpt lat="31.81056" lon="34.9948">
<ele>280</ele>
<time>2022-08-24T00:09:53Z</time></trkpt>
<trkpt lat="31.81051" lon="34.99492">
<ele>279</ele>
<time>2022-08-24T00:09:55Z</time></trkpt>
<trkpt lat="31.81042" lon="34.99498">
<ele>279</ele>
<time>2022-08-24T00:09:57Z</time></trkpt>
<trkpt lat="31.81023" lon="34.99502">
<ele>282</ele>
<time>2022-08-24T00:10:01Z</time></trkpt>
<trkpt lat="31.80988" lon="34.99504">
<ele>287</ele>
<time>2022-08-24T00:10:08Z</time></trkpt>
<trkpt lat="31.80898" lon="34.99503">
<ele>293</ele>
<time>2022-08-24T00:10:26Z</time></trkpt>
<trkpt lat="31.80891" lon="34.99502">
<ele>292</ele>
<time>2022-08-24T00:10:28Z</time></trkpt>
<trkpt lat="31.80877" lon="34.99497">
<ele>292</ele>
<time>2022-08-24T00:10:31Z</time></trkpt>
<trkpt lat="31.80815" lon="34.99448">
<ele>297</ele>
<time>2022-08-24T00:10:46Z</time></trkpt>
<trkpt lat="31.80793" lon="34.99431">
<ele>299</ele>
<time>2022-08-24T00:10:51Z</time></trkpt>
<trkpt lat="31.80792" lon="34.9944">
<ele>298</ele>
<time>2022-08-24T00:10:52Z</time></trkpt>
<trkpt lat="31.80789" lon="34.99447">
<ele>297</ele>
<time>2022-08-24T00:10:54Z</time></trkpt>
<trkpt lat="31.80766" lon="34.99464">
<ele>296</ele>
<time>2022-08-24T00:10:59Z</time></trkpt>
<trkpt lat="31.80747" lon="34.99489">
<ele>296</ele>
<time>2022-08-24T00:11:05Z</time></trkpt>
<trkpt lat="31.80721" lon="34.99529">
<ele>303</ele>
<time>2022-08-24T00:11:14Z</time></trkpt>
<trkpt lat="31.80657" lon="34.9958">
<ele>304</ele>
<time>2022-08-24T00:11:29Z</time></trkpt>
<trkpt lat="31.80607" lon="34.99612">
<ele>310</ele>
<time>2022-08-24T00:11:40Z</time></trkpt>
<trkpt lat="31.80598" lon="34.99616">
<ele>310</ele>
<time>2022-08-24T00:11:42Z</time></trkpt>
<trkpt lat="31.80592" lon="34.99618">
<ele>311</ele>
<time>2022-08-24T00:11:44Z</time></trkpt>
<trkpt lat="31.80581" lon="34.99621">
<ele>311</ele>
<time>2022-08-24T00:11:46Z</time></trkpt>
<trkpt lat="31.8055" lon="34.99621">
<ele>313</ele>
<time>2022-08-24T00:11:52Z</time></trkpt>
<trkpt lat="31.80528" lon="34.99619">
<ele>315</ele>
<time>2022-08-24T00:11:57Z</time></trkpt>
<trkpt lat="31.80516" lon="34.99622">
<ele>315</ele>
<time>2022-08-24T00:11:59Z</time></trkpt>
<trkpt lat="31.80497" lon="34.9963">
<ele>316</ele>
<time>2022-08-24T00:12:03Z</time></trkpt>
<trkpt lat="31.80474" lon="34.99636">
<ele>318</ele>
<time>2022-08-24T00:12:08Z</time></trkpt>
<trkpt lat="31.80458" lon="34.99638">
<ele>319</ele>
<time>2022-08-24T00:12:11Z</time></trkpt>
<trkpt lat="31.80413" lon="34.99638">
<ele>323</ele>
<time>2022-08-24T00:12:20Z</time></trkpt>
<trkpt lat="31.80398" lon="34.9964">
<ele>323</ele>
<time>2022-08-24T00:12:23Z</time></trkpt>
<trkpt lat="31.80367" lon="34.99653">
<ele>321</ele>
<time>2022-08-24T00:12:30Z</time></trkpt>
<trkpt lat="31.80334" lon="34.99662">
<ele>320</ele>
<time>2022-08-24T00:12:36Z</time></trkpt>
<trkpt lat="31.80317" lon="34.99664">
<ele>320</ele>
<time>2022-08-24T00:12:40Z</time></trkpt>
<trkpt lat="31.80285" lon="34.99659">
<ele>323</ele>
<time>2022-08-24T00:12:46Z</time></trkpt>
<trkpt lat="31.80269" lon="34.9966">
<ele>323</ele>
<time>2022-08-24T00:12:49Z</time></trkpt>
<trkpt lat="31.80249" lon="34.99666">
<ele>323</ele>
<time>2022-08-24T00:12:54Z</time></trkpt>
<trkpt lat="31.80224" lon="34.99677">
<ele>328</ele>
<time>2022-08-24T00:12:59Z</time></trkpt>
<trkpt lat="31.80209" lon="34.99685">
<ele>331</ele>
<time>2022-08-24T00:13:02Z</time></trkpt>
<trkpt lat="31.80161" lon="34.99717">
<ele>336</ele>
<time>2022-08-24T00:13:13Z</time></trkpt>
<trkpt lat="31.80139" lon="34.99739">
<ele>337</ele>
<time>2022-08-24T00:13:19Z</time></trkpt>
<trkpt lat="31.80126" lon="34.99747">
<ele>338</ele>
<time>2022-08-24T00:13:22Z</time></trkpt>
<trkpt lat="31.80041" lon="34.99795">
<ele>346</ele>
<time>2022-08-24T00:13:41Z</time></trkpt>
<trkpt lat="31.8002" lon="34.99803">
<ele>346</ele>
<time>2022-08-24T00:13:45Z</time></trkpt>
<trkpt lat="31.79967" lon="34.99816">
<ele>347</ele>
<time>2022-08-24T00:13:56Z</time></trkpt>
<trkpt lat="31.7989" lon="34.99831">
<ele>347</ele>
<time>2022-08-24T00:14:12Z</time></trkpt>
<trkpt lat="31.79856" lon="34.99844">
<ele>350</ele>
<time>2022-08-24T00:14:19Z</time></trkpt>
<trkpt lat="31.79797" lon="34.99874">
<ele>354</ele>
<time>2022-08-24T00:14:32Z</time></trkpt>
<trkpt lat="31.79771" lon="34.99882">
<ele>355</ele>
<time>2022-08-24T00:14:37Z</time></trkpt>
<trkpt lat="31.79696" lon="34.99912">
<ele>355</ele>
<time>2022-08-24T00:14:53Z</time></trkpt>
<trkpt lat="31.79683" lon="34.99916">
<ele>355</ele>
<time>2022-08-24T00:14:56Z</time></trkpt>
<trkpt lat="31.79656" lon="34.99915">
<ele>357</ele>
<time>2022-08-24T00:15:01Z</time></trkpt>
<trkpt lat="31.79647" lon="34.99916">
<ele>358</ele>
<time>2022-08-24T00:15:03Z</time></trkpt>
<trkpt lat="31.79611" lon="34.99932">
<ele>362</ele>
<time>2022-08-24T00:15:11Z</time></trkpt>
<trkpt lat="31.79571" lon="34.9994">
<ele>366</ele>
<time>2022-08-24T00:15:19Z</time></trkpt>
<trkpt lat="31.79557" lon="34.99947">
<ele>367</ele>
<time>2022-08-24T00:15:22Z</time></trkpt>
<trkpt lat="31.7953" lon="34.99966">
<ele>368</ele>
<time>2022-08-24T00:15:28Z</time></trkpt>
<trkpt lat="31.79511" lon="34.99976">
<ele>369</ele>
<time>2022-08-24T00:15:32Z</time></trkpt>
<trkpt lat="31.79456" lon="35.00014">
<ele>373</ele>
<time>2022-08-24T00:15:45Z</time></trkpt>
<trkpt lat="31.79433" lon="35.00025">
<ele>375</ele>
<time>2022-08-24T00:15:50Z</time></trkpt>
<trkpt lat="31.79412" lon="35.00031">
<ele>376</ele>
<time>2022-08-24T00:15:55Z</time></trkpt>
<trkpt lat="31.79389" lon="35.00022">
<ele>378</ele>
<time>2022-08-24T00:15:59Z</time></trkpt>
<trkpt lat="31.79307" lon="35.00021">
<ele>382</ele>
<time>2022-08-24T00:16:16Z</time></trkpt>
<trkpt lat="31.79268" lon="35.00038">
<ele>382</ele>
<time>2022-08-24T00:16:24Z</time></trkpt>
<trkpt lat="31.79256" lon="35.0003">
<ele>383</ele>
<time>2022-08-24T00:16:27Z</time></trkpt>
<trkpt lat="31.79248" lon="35.00022">
<ele>383</ele>
<time>2022-08-24T00:16:29Z</time></trkpt>
<trkpt lat="31.79243" lon="35.00013">
<ele>383</ele>
<time>2022-08-24T00:16:31Z</time></trkpt>
<trkpt lat="31.79238" lon="34.99999">
<ele>383</ele>
<time>2022-08-24T00:16:33Z</time></trkpt>
<trkpt lat="31.79233" lon="34.99975">
<ele>385</ele>
<time>2022-08-24T00:16:38Z</time></trkpt>
<trkpt lat="31.79228" lon="34.99966">
<ele>385</ele>
<time>2022-08-24T00:16:39Z</time></trkpt>
<trkpt lat="31.79219" lon="34.9996">
<ele>385</ele>
<time>2022-08-24T00:16:42Z</time></trkpt>
<trkpt lat="31.7921" lon="34.99957">
<ele>384</ele>
<time>2022-08-24T00:16:43Z</time></trkpt>
<trkpt lat="31.79199" lon="34.9995">
<ele>384</ele>
<time>2022-08-24T00:16:46Z</time></trkpt>
<trkpt lat="31.79176" lon="34.99926">
<ele>385</ele>
<time>2022-08-24T00:16:52Z</time></trkpt>
<trkpt lat="31.79144" lon="34.999">
<ele>382</ele>
<time>2022-08-24T00:17:00Z</time></trkpt>
<trkpt lat="31.79121" lon="34.99876">
<ele>381</ele>
<time>2022-08-24T00:17:06Z</time></trkpt>
<trkpt lat="31.79105" lon="34.99863">
<ele>380</ele>
<time>2022-08-24T00:17:10Z</time></trkpt>
<trkpt lat="31.79096" lon="34.99852">
<ele>381</ele>
<time>2022-08-24T00:17:13Z</time></trkpt>
<trkpt lat="31.79086" lon="34.99832">
<ele>382</ele>
<time>2022-08-24T00:17:16Z</time></trkpt>
<trkpt lat="31.79086" lon="34.99815">
<ele>383</ele>
<time>2022-08-24T00:17:19Z</time></trkpt>
<trkpt lat="31.79089" lon="34.9981">
<ele>383</ele>
<time>2022-08-24T00:17:20Z</time></trkpt>
<trkpt lat="31.79096" lon="34.99804">
<ele>384</ele>
<time>2022-08-24T00:17:22Z</time></trkpt>
<trkpt lat="31.79105" lon="34.99801">
<ele>384</ele>
<time>2022-08-24T00:17:24Z</time></trkpt>
<trkpt lat="31.79136" lon="34.99807">
<ele>387</ele>
<time>2022-08-24T00:17:30Z</time></trkpt>
<trkpt lat="31.79145" lon="34.99805">
<ele>387</ele>
<time>2022-08-24T00:17:32Z</time></trkpt>
<trkpt lat="31.79154" lon="34.99802">
<ele>388</ele>
<time>2022-08-24T00:17:34Z</time></trkpt>
<trkpt lat="31.79163" lon="34.99795">
<ele>388</ele>
<time>2022-08-24T00:17:36Z</time></trkpt>
<trkpt lat="31.79181" lon="34.99777">
<ele>386</ele>
<time>2022-08-24T00:17:41Z</time></trkpt>
<trkpt lat="31.79196" lon="34.99767">
<ele>385</ele>
<time>2022-08-24T00:17:44Z</time></trkpt>
<trkpt lat="31.79217" lon="34.99775">
<ele>386</ele>
<time>2022-08-24T00:17:49Z</time></trkpt>
<trkpt lat="31.79244" lon="34.99775">
<ele>386</ele>
<time>2022-08-24T00:17:54Z</time></trkpt>
<trkpt lat="31.79257" lon="34.99773">
<ele>386</ele>
<time>2022-08-24T00:17:57Z</time></trkpt>
<trkpt lat="31.79284" lon="34.99761">
<ele>387</ele>
<time>2022-08-24T00:18:03Z</time></trkpt>
<trkpt lat="31.79309" lon="34.99745">
<ele>386</ele>
<time>2022-08-24T00:18:08Z</time></trkpt>
<trkpt lat="31.79373" lon="34.99719">
<ele>389</ele>
<time>2022-08-24T00:18:22Z</time></trkpt>
<trkpt lat="31.79402" lon="34.99703">
<ele>390</ele>
<time>2022-08-24T00:18:28Z</time></trkpt>
<trkpt lat="31.79429" lon="34.99689">
<ele>391</ele>
<time>2022-08-24T00:18:34Z</time></trkpt>
<trkpt lat="31.79459" lon="34.9967">
<ele>391</ele>
<time>2022-08-24T00:18:41Z</time></trkpt>
<trkpt lat="31.79481" lon="34.9966">
<ele>391</ele>
<time>2022-08-24T00:18:46Z</time></trkpt>
<trkpt lat="31.7949" lon="34.99659">
<ele>392</ele>
<time>2022-08-24T00:18:48Z</time></trkpt>
<trkpt lat="31.79497" lon="34.9966">
<ele>392</ele>
<time>2022-08-24T00:18:49Z</time></trkpt>
<trkpt lat="31.79516" lon="34.99668">
<ele>391</ele>
<time>2022-08-24T00:18:53Z</time></trkpt>
<trkpt lat="31.79552" lon="34.99689">
<ele>388</ele>
<time>2022-08-24T00:19:01Z</time></trkpt>
<trkpt lat="31.7956" lon="34.99696">
<ele>388</ele>
<time>2022-08-24T00:19:03Z</time></trkpt>
<trkpt lat="31.79585" lon="34.99713">
<ele>386</ele>
<time>2022-08-24T00:19:09Z</time></trkpt>
<trkpt lat="31.79627" lon="34.99736">
<ele>382</ele>
<time>2022-08-24T00:19:18Z</time></trkpt>
<trkpt lat="31.79651" lon="34.99745">
<ele>379</ele>
<time>2022-08-24T00:19:23Z</time></trkpt>
<trkpt lat="31.79676" lon="34.99746">
<ele>377</ele>
<time>2022-08-24T00:19:28Z</time></trkpt>
<trkpt lat="31.79694" lon="34.99743">
<ele>376</ele>
<time>2022-08-24T00:19:32Z</time></trkpt>
<trkpt lat="31.79708" lon="34.99739">
<ele>375</ele>
<time>2022-08-24T00:19:35Z</time></trkpt>
<trkpt lat="31.79737" lon="34.99734">
<ele>373</ele>
<time>2022-08-24T00:19:41Z</time></trkpt>
<trkpt lat="31.79746" lon="34.99731">
<ele>372</ele>
<time>2022-08-24T00:19:42Z</time></trkpt>
<trkpt lat="31.79759" lon="34.99724">
<ele>371</ele>
<time>2022-08-24T00:19:45Z</time></trkpt>
<trkpt lat="31.79774" lon="34.99713">
<ele>370</ele>
<time>2022-08-24T00:19:49Z</time></trkpt>
<trkpt lat="31.79798" lon="34.99691">
<ele>370</ele>
<time>2022-08-24T00:19:55Z</time></trkpt>
<trkpt lat="31.79825" lon="34.99659">
<ele>369</ele>
<time>2022-08-24T00:20:03Z</time></trkpt>
<trkpt lat="31.79849" lon="34.99628">
<ele>364</ele>
<time>2022-08-24T00:20:10Z</time></trkpt>
<trkpt lat="31.7988" lon="34.99599">
<ele>364</ele>
<time>2022-08-24T00:20:18Z</time></trkpt>
<trkpt lat="31.79915" lon="34.9956">
<ele>364</ele>
<time>2022-08-24T00:20:27Z</time></trkpt>
<trkpt lat="31.79932" lon="34.99538">
<ele>361</ele>
<time>2022-08-24T00:20:32Z</time></trkpt>
<trkpt lat="31.79958" lon="34.99497">
<ele>357</ele>
<time>2022-08-24T00:20:41Z</time></trkpt>
<trkpt lat="31.79976" lon="34.99477">
<ele>354</ele>
<time>2022-08-24T00:20:46Z</time></trkpt>
<trkpt lat="31.79999" lon="34.99464">
<ele>353</ele>
<time>2022-08-24T00:20:51Z</time></trkpt>
<trkpt lat="31.80013" lon="34.99462">
<ele>353</ele>
<time>2022-08-24T00:20:54Z</time></trkpt>
<trkpt lat="31.80025" lon="34.99462">
<ele>354</ele>
<time>2022-08-24T00:20:56Z</time></trkpt>
<trkpt lat="31.80057" lon="34.99468">
<ele>355</ele>
<time>2022-08-24T00:21:03Z</time></trkpt>
<trkpt lat="31.80069" lon="34.99468">
<ele>356</ele>
<time>2022-08-24T00:21:05Z</time></trkpt>
<trkpt lat="31.80082" lon="34.99466">
<ele>356</ele>
<time>2022-08-24T00:21:08Z</time></trkpt>
<trkpt lat="31.80098" lon="34.99458">
<ele>356</ele>
<time>2022-08-24T00:21:11Z</time></trkpt>
<trkpt lat="31.8011" lon="34.99448">
<ele>355</ele>
<time>2022-08-24T00:21:14Z</time></trkpt>
<trkpt lat="31.80114" lon="34.99443">
<ele>355</ele>
<time>2022-08-24T00:21:16Z</time></trkpt>
<trkpt lat="31.80119" lon="34.99438">
<ele>355</ele>
<time>2022-08-24T00:21:17Z</time></trkpt>
<trkpt lat="31.80143" lon="34.99393">
<ele>355</ele>
<time>2022-08-24T00:21:26Z</time></trkpt>
<trkpt lat="31.80157" lon="34.99371">
<ele>355</ele>
<time>2022-08-24T00:21:31Z</time></trkpt>
<trkpt lat="31.80166" lon="34.99358">
<ele>356</ele>
<time>2022-08-24T00:21:34Z</time></trkpt>
<trkpt lat="31.80179" lon="34.99347">
<ele>356</ele>
<time>2022-08-24T00:21:37Z</time></trkpt>
<trkpt lat="31.80191" lon="34.99339">
<ele>357</ele>
<time>2022-08-24T00:21:39Z</time></trkpt>
<trkpt lat="31.802" lon="34.99337">
<ele>357</ele>
<time>2022-08-24T00:21:41Z</time></trkpt>
<trkpt lat="31.80215" lon="34.99329">
<ele>358</ele>
<time>2022-08-24T00:21:45Z</time></trkpt>
<trkpt lat="31.8022" lon="34.99328">
<ele>358</ele>
<time>2022-08-24T00:21:46Z</time></trkpt>
<trkpt lat="31.80269" lon="34.99305">
<ele>358</ele>
<time>2022-08-24T00:21:56Z</time></trkpt>
<trkpt lat="31.80295" lon="34.99287">
<ele>357</ele>
<time>2022-08-24T00:22:02Z</time></trkpt>
<trkpt lat="31.80311" lon="34.9927">
<ele>357</ele>
<time>2022-08-24T00:22:07Z</time></trkpt>
<trkpt lat="31.8032" lon="34.99257">
<ele>357</ele>
<time>2022-08-24T00:22:09Z</time></trkpt>
<trkpt lat="31.80332" lon="34.99236">
<ele>358</ele>
<time>2022-08-24T00:22:14Z</time></trkpt>
<trkpt lat="31.80343" lon="34.99215">
<ele>358</ele>
<time>2022-08-24T00:22:18Z</time></trkpt>
<trkpt lat="31.80359" lon="34.99182">
<ele>356</ele>
<time>2022-08-24T00:22:24Z</time></trkpt>
<trkpt lat="31.80371" lon="34.99163">
<ele>355</ele>
<time>2022-08-24T00:22:28Z</time></trkpt>
<trkpt lat="31.80377" lon="34.99156">
<ele>354</ele>
<time>2022-08-24T00:22:30Z</time></trkpt>
<trkpt lat="31.80391" lon="34.99153">
<ele>353</ele>
<time>2022-08-24T00:22:33Z</time></trkpt>
<trkpt lat="31.80378" lon="34.99147">
<ele>353</ele>
<time>2022-08-24T00:22:36Z</time></trkpt>
<trkpt lat="31.80366" lon="34.99134">
<ele>353</ele>
<time>2022-08-24T00:22:39Z</time></trkpt>
<trkpt lat="31.8036" lon="34.99119">
<ele>352</ele>
<time>2022-08-24T00:22:42Z</time></trkpt>
<trkpt lat="31.80359" lon="34.99107">
<ele>352</ele>
<time>2022-08-24T00:22:44Z</time></trkpt>
<trkpt lat="31.80359" lon="34.99094">
<ele>351</ele>
<time>2022-08-24T00:22:46Z</time></trkpt>
<trkpt lat="31.80365" lon="34.99056">
<ele>351</ele>
<time>2022-08-24T00:22:53Z</time></trkpt>
<trkpt lat="31.80379" lon="34.99008">
<ele>350</ele>
<time>2022-08-24T00:23:01Z</time></trkpt>
<trkpt lat="31.80387" lon="34.98988">
<ele>349</ele>
<time>2022-08-24T00:23:05Z</time></trkpt>
<trkpt lat="31.80403" lon="34.98946">
<ele>351</ele>
<time>2022-08-24T00:23:13Z</time></trkpt>
<trkpt lat="31.80435" lon="34.9888">
<ele>349</ele>
<time>2022-08-24T00:23:26Z</time></trkpt>
<trkpt lat="31.80458" lon="34.98842">
<ele>347</ele>
<time>2022-08-24T00:23:34Z</time></trkpt>
<trkpt lat="31.80463" lon="34.98826">
<ele>346</ele>
<time>2022-08-24T00:23:37Z</time></trkpt>
<trkpt lat="31.80466" lon="34.98809">
<ele>345</ele>
<time>2022-08-24T00:23:40Z</time></trkpt>
<trkpt lat="31.80465" lon="34.98793">
<ele>345</ele>
<time>2022-08-24T00:23:42Z</time></trkpt>
<trkpt lat="31.80457" lon="34.98708">
<ele>341</ele>
<time>2022-08-24T00:23:57Z</time></trkpt>
<trkpt lat="31.80457" lon="34.98661">
<ele>338</ele>
<time>2022-08-24T00:24:05Z</time></trkpt>
<trkpt lat="31.80456" lon="34.98649">
<ele>338</ele>
<time>2022-08-24T00:24:07Z</time></trkpt>
<trkpt lat="31.80451" lon="34.98629">
<ele>337</ele>
<time>2022-08-24T00:24:11Z</time></trkpt>
<trkpt lat="31.80455" lon="34.98643">
<ele>338</ele>
<time>2022-08-24T00:24:13Z</time></trkpt>
<trkpt lat="31.80458" lon="34.98647">
<ele>338</ele>
<time>2022-08-24T00:24:14Z</time></trkpt>
<trkpt lat="31.80465" lon="34.98649">
<ele>338</ele>
<time>2022-08-24T00:24:15Z</time></trkpt>
<trkpt lat="31.80474" lon="34.9865">
<ele>337</ele>
<time>2022-08-24T00:24:17Z</time></trkpt>
<trkpt lat="31.80481" lon="34.98654">
<ele>337</ele>
<time>2022-08-24T00:24:19Z</time></trkpt>
<trkpt lat="31.80477" lon="34.98664">
<ele>338</ele>
<time>2022-08-24T00:24:21Z</time></trkpt>
<trkpt lat="31.80481" lon="34.98654">
<ele>337</ele>
<time>2022-08-24T00:24:23Z</time></trkpt>
<trkpt lat="31.80474" lon="34.9865">
<ele>337</ele>
<time>2022-08-24T00:24:24Z</time></trkpt>
<trkpt lat="31.80465" lon="34.98649">
<ele>338</ele>
<time>2022-08-24T00:24:26Z</time></trkpt>
<trkpt lat="31.80458" lon="34.98647">
<ele>338</ele>
<time>2022-08-24T00:24:27Z</time></trkpt>
<trkpt lat="31.80455" lon="34.98643">
<ele>338</ele>
<time>2022-08-24T00:24:28Z</time></trkpt>
<trkpt lat="31.80451" lon="34.98629">
<ele>337</ele>
<time>2022-08-24T00:24:31Z</time></trkpt>
<trkpt lat="31.80447" lon="34.98622">
<ele>337</ele>
<time>2022-08-24T00:24:32Z</time></trkpt>
<trkpt lat="31.80441" lon="34.98617">
<ele>337</ele>
<time>2022-08-24T00:24:34Z</time></trkpt>
<trkpt lat="31.80434" lon="34.98615">
<ele>337</ele>
<time>2022-08-24T00:24:35Z</time></trkpt>
<trkpt lat="31.80427" lon="34.98615">
<ele>338</ele>
<time>2022-08-24T00:24:37Z</time></trkpt>
<trkpt lat="31.80416" lon="34.98619">
<ele>338</ele>
<time>2022-08-24T00:24:39Z</time></trkpt>
<trkpt lat="31.80411" lon="34.98626">
<ele>337</ele>
<time>2022-08-24T00:24:40Z</time></trkpt>
<trkpt lat="31.80403" lon="34.98639">
<ele>336</ele>
<time>2022-08-24T00:24:43Z</time></trkpt>
<trkpt lat="31.80394" lon="34.98662">
<ele>334</ele>
<time>2022-08-24T00:24:48Z</time></trkpt>
<trkpt lat="31.80387" lon="34.98677">
<ele>334</ele>
<time>2022-08-24T00:24:50Z</time></trkpt>
<trkpt lat="31.80354" lon="34.98716">
<ele>333</ele>
<time>2022-08-24T00:25:00Z</time></trkpt>
<trkpt lat="31.80346" lon="34.98724">
<ele>332</ele>
<time>2022-08-24T00:25:02Z</time></trkpt>
<trkpt lat="31.80337" lon="34.98738">
<ele>333</ele>
<time>2022-08-24T00:25:05Z</time></trkpt>
<trkpt lat="31.80329" lon="34.98746">
<ele>333</ele>
<time>2022-08-24T00:25:07Z</time></trkpt>
<trkpt lat="31.80317" lon="34.98755">
<ele>332</ele>
<time>2022-08-24T00:25:10Z</time></trkpt>
<trkpt lat="31.80299" lon="34.98761">
<ele>331</ele>
<time>2022-08-24T00:25:14Z</time></trkpt>
<trkpt lat="31.80275" lon="34.98767">
<ele>328</ele>
<time>2022-08-24T00:25:19Z</time></trkpt>
<trkpt lat="31.80249" lon="34.98767">
<ele>324</ele>
<time>2022-08-24T00:25:24Z</time></trkpt>
<trkpt lat="31.80239" lon="34.9877">
<ele>323</ele>
<time>2022-08-24T00:25:26Z</time></trkpt>
<trkpt lat="31.80229" lon="34.98775">
<ele>322</ele>
<time>2022-08-24T00:25:28Z</time></trkpt>
<trkpt lat="31.80216" lon="34.98789">
<ele>323</ele>
<time>2022-08-24T00:25:31Z</time></trkpt>
<trkpt lat="31.80201" lon="34.98818">
<ele>327</ele>
<time>2022-08-24T00:25:37Z</time></trkpt>
<trkpt lat="31.80193" lon="34.98827">
<ele>327</ele>
<time>2022-08-24T00:25:39Z</time></trkpt>
<trkpt lat="31.80187" lon="34.98831">
<ele>327</ele>
<time>2022-08-24T00:25:41Z</time></trkpt>
<trkpt lat="31.8018" lon="34.98833">
<ele>326</ele>
<time>2022-08-24T00:25:42Z</time></trkpt>
<trkpt lat="31.80166" lon="34.9883">
<ele>323</ele>
<time>2022-08-24T00:25:45Z</time></trkpt>
<trkpt lat="31.80147" lon="34.98816">
<ele>319</ele>
<time>2022-08-24T00:25:50Z</time></trkpt>
<trkpt lat="31.80122" lon="34.98793">
<ele>312</ele>
<time>2022-08-24T00:25:56Z</time></trkpt>
<trkpt lat="31.80107" lon="34.98781">
<ele>309</ele>
<time>2022-08-24T00:26:00Z</time></trkpt>
<trkpt lat="31.80088" lon="34.98769">
<ele>305</ele>
<time>2022-08-24T00:26:04Z</time></trkpt>
<trkpt lat="31.80078" lon="34.98765">
<ele>304</ele>
<time>2022-08-24T00:26:06Z</time></trkpt>
<trkpt lat="31.80067" lon="34.98763">
<ele>302</ele>
<time>2022-08-24T00:26:08Z</time></trkpt>
<trkpt lat="31.80053" lon="34.98763">
<ele>300</ele>
<time>2022-08-24T00:26:11Z</time></trkpt>
<trkpt lat="31.80028" lon="34.98767">
<ele>298</ele>
<time>2022-08-24T00:26:16Z</time></trkpt>
<trkpt lat="31.80011" lon="34.98775">
<ele>298</ele>
<time>2022-08-24T00:26:20Z</time></trkpt>
<trkpt lat="31.79967" lon="34.98803">
<ele>296</ele>
<time>2022-08-24T00:26:30Z</time></trkpt>
<trkpt lat="31.79945" lon="34.98819">
<ele>294</ele>
<time>2022-08-24T00:26:35Z</time></trkpt>
<trkpt lat="31.79923" lon="34.98847">
<ele>292</ele>
<time>2022-08-24T00:26:42Z</time></trkpt>
<trkpt lat="31.79908" lon="34.98871">
<ele>292</ele>
<time>2022-08-24T00:26:47Z</time></trkpt>
<trkpt lat="31.79894" lon="34.98899">
<ele>293</ele>
<time>2022-08-24T00:26:52Z</time></trkpt>
<trkpt lat="31.79892" lon="34.98904">
<ele>293</ele>
<time>2022-08-24T00:26:53Z</time></trkpt>
<trkpt lat="31.79886" lon="34.98909">
<ele>293</ele>
<time>2022-08-24T00:26:55Z</time></trkpt>
<trkpt lat="31.7988" lon="34.98913">
<ele>293</ele>
<time>2022-08-24T00:26:56Z</time></trkpt>
<trkpt lat="31.79873" lon="34.98913">
<ele>293</ele>
<time>2022-08-24T00:26:57Z</time></trkpt>
<trkpt lat="31.79866" lon="34.98911">
<ele>292</ele>
<time>2022-08-24T00:26:59Z</time></trkpt>
<trkpt lat="31.79857" lon="34.98903">
<ele>292</ele>
<time>2022-08-24T00:27:01Z</time></trkpt>
<trkpt lat="31.79851" lon="34.98893">
<ele>291</ele>
<time>2022-08-24T00:27:03Z</time></trkpt>
<trkpt lat="31.79849" lon="34.98889">
<ele>291</ele>
<time>2022-08-24T00:27:04Z</time></trkpt>
<trkpt lat="31.79835" lon="34.98853">
<ele>289</ele>
<time>2022-08-24T00:27:11Z</time></trkpt>
<trkpt lat="31.79839" lon="34.9884">
<ele>288</ele>
<time>2022-08-24T00:27:13Z</time></trkpt>
<trkpt lat="31.79845" lon="34.98829">
<ele>289</ele>
<time>2022-08-24T00:27:15Z</time></trkpt>
<trkpt lat="31.79863" lon="34.98809">
<ele>290</ele>
<time>2022-08-24T00:27:20Z</time></trkpt>
<trkpt lat="31.79872" lon="34.98796">
<ele>290</ele>
<time>2022-08-24T00:27:23Z</time></trkpt>
<trkpt lat="31.79931" lon="34.98664">
<ele>285</ele>
<time>2022-08-24T00:27:48Z</time></trkpt>
<trkpt lat="31.80004" lon="34.98554">
<ele>272</ele>
<time>2022-08-24T00:28:12Z</time></trkpt>
<trkpt lat="31.80015" lon="34.98532">
<ele>271</ele>
<time>2022-08-24T00:28:17Z</time></trkpt>
<trkpt lat="31.80046" lon="34.98446">
<ele>269</ele>
<time>2022-08-24T00:28:32Z</time></trkpt>
<trkpt lat="31.80054" lon="34.98418">
<ele>268</ele>
<time>2022-08-24T00:28:38Z</time></trkpt>
<trkpt lat="31.8006" lon="34.98389">
<ele>265</ele>
<time>2022-08-24T00:28:43Z</time></trkpt>
<trkpt lat="31.80064" lon="34.98373">
<ele>264</ele>
<time>2022-08-24T00:28:45Z</time></trkpt>
<trkpt lat="31.80067" lon="34.98352">
<ele>262</ele>
<time>2022-08-24T00:28:49Z</time></trkpt>
<trkpt lat="31.80067" lon="34.98297">
<ele>259</ele>
<time>2022-08-24T00:28:58Z</time></trkpt>
<trkpt lat="31.80068" lon="34.98265">
<ele>258</ele>
<time>2022-08-24T00:29:04Z</time></trkpt>
<trkpt lat="31.8007" lon="34.98221">
<ele>255</ele>
<time>2022-08-24T00:29:11Z</time></trkpt>
<trkpt lat="31.80073" lon="34.982">
<ele>254</ele>
<time>2022-08-24T00:29:15Z</time></trkpt>
<trkpt lat="31.80071" lon="34.9817">
<ele>252</ele>
<time>2022-08-24T00:29:20Z</time></trkpt>
<trkpt lat="31.80069" lon="34.98162">
<ele>252</ele>
<time>2022-08-24T00:29:22Z</time></trkpt>
<trkpt lat="31.80063" lon="34.98151">
<ele>252</ele>
<time>2022-08-24T00:29:24Z</time></trkpt>
<trkpt lat="31.80048" lon="34.98127">
<ele>252</ele>
<time>2022-08-24T00:29:29Z</time></trkpt>
<trkpt lat="31.80037" lon="34.98106">
<ele>251</ele>
<time>2022-08-24T00:29:33Z</time></trkpt>
<trkpt lat="31.80028" lon="34.98082">
<ele>249</ele>
<time>2022-08-24T00:29:38Z</time></trkpt>
<trkpt lat="31.80025" lon="34.9807">
<ele>249</ele>
<time>2022-08-24T00:29:40Z</time></trkpt>
<trkpt lat="31.80012" lon="34.98045">
<ele>248</ele>
<time>2022-08-24T00:29:45Z</time></trkpt>
<trkpt lat="31.79999" lon="34.98015">
<ele>247</ele>
<time>2022-08-24T00:29:50Z</time></trkpt>
<trkpt lat="31.79988" lon="34.97979">
<ele>248</ele>
<time>2022-08-24T00:29:57Z</time></trkpt>
<trkpt lat="31.79991" lon="34.97961">
<ele>247</ele>
<time>2022-08-24T00:30:00Z</time></trkpt>
<trkpt lat="31.79994" lon="34.97949">
<ele>246</ele>
<time>2022-08-24T00:30:02Z</time></trkpt>
<trkpt lat="31.79999" lon="34.97934">
<ele>245</ele>
<time>2022-08-24T00:30:05Z</time></trkpt>
<trkpt lat="31.80002" lon="34.97918">
<ele>244</ele>
<time>2022-08-24T00:30:08Z</time></trkpt>
<trkpt lat="31.80014" lon="34.97897">
<ele>243</ele>
<time>2022-08-24T00:30:12Z</time></trkpt>
<trkpt lat="31.80055" lon="34.97837">
<ele>239</ele>
<time>2022-08-24T00:30:25Z</time></trkpt>
<trkpt lat="31.80059" lon="34.97819">
<ele>237</ele>
<time>2022-08-24T00:30:28Z</time></trkpt>
<trkpt lat="31.80043" lon="34.97747">
<ele>234</ele>
<time>2022-08-24T00:30:41Z</time></trkpt>
<trkpt lat="31.80027" lon="34.97757">
<ele>234</ele>
<time>2022-08-24T00:30:45Z</time></trkpt>
<trkpt lat="31.80008" lon="34.9776">
<ele>235</ele>
<time>2022-08-24T00:30:48Z</time></trkpt>
<trkpt lat="31.79993" lon="34.97754">
<ele>235</ele>
<time>2022-08-24T00:30:52Z</time></trkpt>
<trkpt lat="31.79983" lon="34.97747">
<ele>235</ele>
<time>2022-08-24T00:30:54Z</time></trkpt>
<trkpt lat="31.79969" lon="34.97733">
<ele>235</ele>
<time>2022-08-24T00:30:58Z</time></trkpt>
<trkpt lat="31.79955" lon="34.97715">
<ele>235</ele>
<time>2022-08-24T00:31:02Z</time></trkpt>
<trkpt lat="31.79923" lon="34.97672">
<ele>234</ele>
<time>2022-08-24T00:31:12Z</time></trkpt>
<trkpt lat="31.79914" lon="34.97659">
<ele>234</ele>
<time>2022-08-24T00:31:14Z</time></trkpt>
<trkpt lat="31.79901" lon="34.97639">
<ele>233</ele>
<time>2022-08-24T00:31:19Z</time></trkpt>
<trkpt lat="31.79883" lon="34.97616">
<ele>232</ele>
<time>2022-08-24T00:31:24Z</time></trkpt>
<trkpt lat="31.79872" lon="34.97605">
<ele>232</ele>
<time>2022-08-24T00:31:27Z</time></trkpt>
<trkpt lat="31.79861" lon="34.97596">
<ele>232</ele>
<time>2022-08-24T00:31:30Z</time></trkpt>
<trkpt lat="31.79844" lon="34.97586">
<ele>233</ele>
<time>2022-08-24T00:31:33Z</time></trkpt>
<trkpt lat="31.79833" lon="34.97582">
<ele>233</ele>
<time>2022-08-24T00:31:36Z</time></trkpt>
<trkpt lat="31.79819" lon="34.9758">
<ele>232</ele>
<time>2022-08-24T00:31:38Z</time></trkpt>
<trkpt lat="31.79802" lon="34.9758">
<ele>232</ele>
<time>2022-08-24T00:31:42Z</time></trkpt>
<trkpt lat="31.79749" lon="34.97602">
<ele>232</ele>
<time>2022-08-24T00:31:53Z</time></trkpt>
<trkpt lat="31.7972" lon="34.97628">
<ele>231</ele>
<time>2022-08-24T00:32:00Z</time></trkpt>
<trkpt lat="31.79654" lon="34.97691">
<ele>228</ele>
<time>2022-08-24T00:32:17Z</time></trkpt>
<trkpt lat="31.79628" lon="34.97714">
<ele>226</ele>
<time>2022-08-24T00:32:24Z</time></trkpt>
<trkpt lat="31.79617" lon="34.97722">
<ele>226</ele>
<time>2022-08-24T00:32:27Z</time></trkpt>
<trkpt lat="31.79607" lon="34.97726">
<ele>225</ele>
<time>2022-08-24T00:32:29Z</time></trkpt>
<trkpt lat="31.79597" lon="34.97728">
<ele>224</ele>
<time>2022-08-24T00:32:31Z</time></trkpt>
<trkpt lat="31.79585" lon="34.97727">
<ele>223</ele>
<time>2022-08-24T00:32:33Z</time></trkpt>
<trkpt lat="31.79563" lon="34.97718">
<ele>221</ele>
<time>2022-08-24T00:32:38Z</time></trkpt>
<trkpt lat="31.79532" lon="34.97695">
<ele>219</ele>
<time>2022-08-24T00:32:45Z</time></trkpt>
<trkpt lat="31.7953" lon="34.97667">
<ele>218</ele>
<time>2022-08-24T00:32:50Z</time></trkpt>
<trkpt lat="31.79528" lon="34.97647">
<ele>218</ele>
<time>2022-08-24T00:32:53Z</time></trkpt>
<trkpt lat="31.79512" lon="34.97636">
<ele>218</ele>
<time>2022-08-24T00:32:57Z</time></trkpt>
<trkpt lat="31.79509" lon="34.97631">
<ele>219</ele>
<time>2022-08-24T00:32:58Z</time></trkpt>
<trkpt lat="31.79487" lon="34.97622">
<ele>221</ele>
<time>2022-08-24T00:33:03Z</time></trkpt>
<trkpt lat="31.79488" lon="34.97619">
<ele>221</ele>
<time>2022-08-24T00:33:03Z</time></trkpt>
<trkpt lat="31.79488" lon="34.97616">
<ele>221</ele>
<time>2022-08-24T00:33:04Z</time></trkpt>
<trkpt lat="31.79487" lon="34.97613">
<ele>222</ele>
<time>2022-08-24T00:33:04Z</time></trkpt>
<trkpt lat="31.79485" lon="34.9761">
<ele>222</ele>
<time>2022-08-24T00:33:05Z</time></trkpt>
<trkpt lat="31.79499" lon="34.97586">
<ele>221</ele>
<time>2022-08-24T00:33:10Z</time></trkpt>
<trkpt lat="31.79521" lon="34.97544">
<ele>220</ele>
<time>2022-08-24T00:33:18Z</time></trkpt>
<trkpt lat="31.7953" lon="34.97533">
<ele>219</ele>
<time>2022-08-24T00:33:21Z</time></trkpt>
<trkpt lat="31.79538" lon="34.97525">
<ele>218</ele>
<time>2022-08-24T00:33:23Z</time></trkpt>
<trkpt lat="31.79534" lon="34.97517">
<ele>219</ele>
<time>2022-08-24T00:33:25Z</time></trkpt>
<trkpt lat="31.79531" lon="34.97499">
<ele>220</ele>
<time>2022-08-24T00:33:28Z</time></trkpt>
<trkpt lat="31.79531" lon="34.97489">
<ele>220</ele>
<time>2022-08-24T00:33:30Z</time></trkpt>
<trkpt lat="31.79536" lon="34.97472">
<ele>219</ele>
<time>2022-08-24T00:33:33Z</time></trkpt>
<trkpt lat="31.79549" lon="34.97451">
<ele>216</ele>
<time>2022-08-24T00:33:37Z</time></trkpt>
<trkpt lat="31.79556" lon="34.97424">
<ele>214</ele>
<time>2022-08-24T00:33:42Z</time></trkpt>
<trkpt lat="31.7956" lon="34.97401">
<ele>213</ele>
<time>2022-08-24T00:33:46Z</time></trkpt>
<trkpt lat="31.79564" lon="34.97369">
<ele>212</ele>
<time>2022-08-24T00:33:51Z</time></trkpt>
<trkpt lat="31.79566" lon="34.9732">
<ele>213</ele>
<time>2022-08-24T00:34:00Z</time></trkpt>
<trkpt lat="31.79567" lon="34.9728">
<ele>215</ele>
<time>2022-08-24T00:34:07Z</time></trkpt>
<trkpt lat="31.79563" lon="34.97252">
<ele>218</ele>
<time>2022-08-24T00:34:11Z</time></trkpt>
<trkpt lat="31.79567" lon="34.97237">
<ele>218</ele>
<time>2022-08-24T00:34:14Z</time></trkpt>
<trkpt lat="31.7957" lon="34.97228">
<ele>219</ele>
<time>2022-08-24T00:34:16Z</time></trkpt>
<trkpt lat="31.79584" lon="34.97207">
<ele>217</ele>
<time>2022-08-24T00:34:20Z</time></trkpt>
<trkpt lat="31.79594" lon="34.97185">
<ele>218</ele>
<time>2022-08-24T00:34:24Z</time></trkpt>
<trkpt lat="31.79604" lon="34.97153">
<ele>217</ele>
<time>2022-08-24T00:34:30Z</time></trkpt>
<trkpt lat="31.79604" lon="34.97138">
<ele>216</ele>
<time>2022-08-24T00:34:33Z</time></trkpt>
<trkpt lat="31.79602" lon="34.97122">
<ele>216</ele>
<time>2022-08-24T00:34:36Z</time></trkpt>
<trkpt lat="31.79597" lon="34.97107">
<ele>216</ele>
<time>2022-08-24T00:34:38Z</time></trkpt>
<trkpt lat="31.7958" lon="34.97083">
<ele>218</ele>
<time>2022-08-24T00:34:44Z</time></trkpt>
<trkpt lat="31.79562" lon="34.97062">
<ele>219</ele>
<time>2022-08-24T00:34:49Z</time></trkpt>
<trkpt lat="31.79544" lon="34.97039">
<ele>221</ele>
<time>2022-08-24T00:34:54Z</time></trkpt>
<trkpt lat="31.79531" lon="34.97014">
<ele>221</ele>
<time>2022-08-24T00:34:59Z</time></trkpt>
<trkpt lat="31.79519" lon="34.96998">
<ele>222</ele>
<time>2022-08-24T00:35:03Z</time></trkpt>
<trkpt lat="31.79506" lon="34.96986">
<ele>224</ele>
<time>2022-08-24T00:35:06Z</time></trkpt>
<trkpt lat="31.79479" lon="34.96973">
<ele>229</ele>
<time>2022-08-24T00:35:12Z</time></trkpt>
<trkpt lat="31.79454" lon="34.9697">
<ele>233</ele>
<time>2022-08-24T00:35:17Z</time></trkpt>
<trkpt lat="31.79441" lon="34.96966">
<ele>236</ele>
<time>2022-08-24T00:35:20Z</time></trkpt>
<trkpt lat="31.7943" lon="34.96959">
<ele>237</ele>
<time>2022-08-24T00:35:22Z</time></trkpt>
<trkpt lat="31.79422" lon="34.96948">
<ele>238</ele>
<time>2022-08-24T00:35:25Z</time></trkpt>
<trkpt lat="31.79417" lon="34.96935">
<ele>238</ele>
<time>2022-08-24T00:35:27Z</time></trkpt>
<trkpt lat="31.79415" lon="34.96922">
<ele>238</ele>
<time>2022-08-24T00:35:29Z</time></trkpt>
<trkpt lat="31.79416" lon="34.96909">
<ele>238</ele>
<time>2022-08-24T00:35:31Z</time></trkpt>
<trkpt lat="31.79421" lon="34.96868">
<ele>238</ele>
<time>2022-08-24T00:35:38Z</time></trkpt>
<trkpt lat="31.79425" lon="34.96832">
<ele>239</ele>
<time>2022-08-24T00:35:45Z</time></trkpt>
<trkpt lat="31.79425" lon="34.96786">
<ele>240</ele>
<time>2022-08-24T00:35:53Z</time></trkpt>
<trkpt lat="31.79428" lon="34.96751">
<ele>239</ele>
<time>2022-08-24T00:35:58Z</time></trkpt>
<trkpt lat="31.79425" lon="34.96709">
<ele>240</ele>
<time>2022-08-24T00:36:06Z</time></trkpt>
<trkpt lat="31.79426" lon="34.96695">
<ele>240</ele>
<time>2022-08-24T00:36:08Z</time></trkpt>
<trkpt lat="31.79431" lon="34.96677">
<ele>239</ele>
<time>2022-08-24T00:36:11Z</time></trkpt>
<trkpt lat="31.79448" lon="34.96645">
<ele>233</ele>
<time>2022-08-24T00:36:18Z</time></trkpt>
<trkpt lat="31.79494" lon="34.96545">
<ele>224</ele>
<time>2022-08-24T00:36:37Z</time></trkpt>
<trkpt lat="31.79503" lon="34.96534">
<ele>223</ele>
<time>2022-08-24T00:36:40Z</time></trkpt>
<trkpt lat="31.79508" lon="34.96527">
<ele>222</ele>
<time>2022-08-24T00:36:41Z</time></trkpt>
<trkpt lat="31.79509" lon="34.96526">
<ele>222</ele>
<time>2022-08-24T00:36:42Z</time></trkpt>
<trkpt lat="31.79523" lon="34.96493">
<ele>220</ele>
<time>2022-08-24T00:36:48Z</time></trkpt>
<trkpt lat="31.79526" lon="34.96485">
<ele>219</ele>
<time>2022-08-24T00:36:49Z</time></trkpt>
<trkpt lat="31.7952" lon="34.96485">
<ele>220</ele>
<time>2022-08-24T00:36:50Z</time></trkpt>
<trkpt lat="31.79515" lon="34.9648">
<ele>220</ele>
<time>2022-08-24T00:36:52Z</time></trkpt>
<trkpt lat="31.79507" lon="34.96478">
<ele>220</ele>
<time>2022-08-24T00:36:53Z</time></trkpt>
<trkpt lat="31.79497" lon="34.96479">
<ele>220</ele>
<time>2022-08-24T00:36:55Z</time></trkpt>
<trkpt lat="31.79473" lon="34.96489">
<ele>221</ele>
<time>2022-08-24T00:37:01Z</time></trkpt>
<trkpt lat="31.79464" lon="34.96496">
<ele>222</ele>
<time>2022-08-24T00:37:03Z</time></trkpt>
<trkpt lat="31.79457" lon="34.96505">
<ele>222</ele>
<time>2022-08-24T00:37:05Z</time></trkpt>
<trkpt lat="31.7944" lon="34.96538">
<ele>226</ele>
<time>2022-08-24T00:37:11Z</time></trkpt>
<trkpt lat="31.79429" lon="34.96555">
<ele>228</ele>
<time>2022-08-24T00:37:15Z</time></trkpt>
<trkpt lat="31.79421" lon="34.96562">
<ele>230</ele>
<time>2022-08-24T00:37:17Z</time></trkpt>
<trkpt lat="31.79393" lon="34.96572">
<ele>230</ele>
<time>2022-08-24T00:37:23Z</time></trkpt>
<trkpt lat="31.79385" lon="34.9658">
<ele>231</ele>
<time>2022-08-24T00:37:25Z</time></trkpt>
<trkpt lat="31.79378" lon="34.9659">
<ele>232</ele>
<time>2022-08-24T00:37:27Z</time></trkpt>
<trkpt lat="31.79372" lon="34.96601">
<ele>234</ele>
<time>2022-08-24T00:37:29Z</time></trkpt>
<trkpt lat="31.7937" lon="34.96609">
<ele>235</ele>
<time>2022-08-24T00:37:31Z</time></trkpt>
<trkpt lat="31.79366" lon="34.96638">
<ele>239</ele>
<time>2022-08-24T00:37:36Z</time></trkpt>
<trkpt lat="31.79355" lon="34.96661">
<ele>242</ele>
<time>2022-08-24T00:37:40Z</time></trkpt>
<trkpt lat="31.79353" lon="34.96673">
<ele>243</ele>
<time>2022-08-24T00:37:42Z</time></trkpt>
<trkpt lat="31.79347" lon="34.96684">
<ele>245</ele>
<time>2022-08-24T00:37:45Z</time></trkpt>
<trkpt lat="31.79338" lon="34.96697">
<ele>247</ele>
<time>2022-08-24T00:37:47Z</time></trkpt>
<trkpt lat="31.79328" lon="34.96708">
<ele>248</ele>
<time>2022-08-24T00:37:50Z</time></trkpt>
<trkpt lat="31.79313" lon="34.96717">
<ele>249</ele>
<time>2022-08-24T00:37:54Z</time></trkpt>
<trkpt lat="31.79271" lon="34.96745">
<ele>252</ele>
<time>2022-08-24T00:38:03Z</time></trkpt>
<trkpt lat="31.7926" lon="34.96756">
<ele>253</ele>
<time>2022-08-24T00:38:06Z</time></trkpt>
<trkpt lat="31.79254" lon="34.96771">
<ele>255</ele>
<time>2022-08-24T00:38:09Z</time></trkpt>
<trkpt lat="31.79253" lon="34.96797">
<ele>259</ele>
<time>2022-08-24T00:38:13Z</time></trkpt>
<trkpt lat="31.7925" lon="34.96813">
<ele>262</ele>
<time>2022-08-24T00:38:16Z</time></trkpt>
<trkpt lat="31.79243" lon="34.96838">
<ele>265</ele>
<time>2022-08-24T00:38:21Z</time></trkpt>
<trkpt lat="31.79236" lon="34.96857">
<ele>267</ele>
<time>2022-08-24T00:38:24Z</time></trkpt>
<trkpt lat="31.79222" lon="34.96851">
<ele>266</ele>
<time>2022-08-24T00:38:27Z</time></trkpt>
<trkpt lat="31.79205" lon="34.96856">
<ele>267</ele>
<time>2022-08-24T00:38:31Z</time></trkpt>
<trkpt lat="31.79187" lon="34.96858">
<ele>267</ele>
<time>2022-08-24T00:38:34Z</time></trkpt>
<trkpt lat="31.79133" lon="34.96849">
<ele>267</ele>
<time>2022-08-24T00:38:45Z</time></trkpt>
<trkpt lat="31.79101" lon="34.96848">
<ele>268</ele>
<time>2022-08-24T00:38:52Z</time></trkpt>
<trkpt lat="31.79086" lon="34.96845">
<ele>268</ele>
<time>2022-08-24T00:38:55Z</time></trkpt>
<trkpt lat="31.79073" lon="34.96838">
<ele>268</ele>
<time>2022-08-24T00:38:58Z</time></trkpt>
<trkpt lat="31.79048" lon="34.96831">
<ele>268</ele>
<time>2022-08-24T00:39:03Z</time></trkpt>
<trkpt lat="31.79034" lon="34.96831">
<ele>269</ele>
<time>2022-08-24T00:39:06Z</time></trkpt>
<trkpt lat="31.79002" lon="34.96825">
<ele>270</ele>
<time>2022-08-24T00:39:12Z</time></trkpt>
<trkpt lat="31.78983" lon="34.96812">
<ele>271</ele>
<time>2022-08-24T00:39:16Z</time></trkpt>
<trkpt lat="31.78949" lon="34.96796">
<ele>273</ele>
<time>2022-08-24T00:39:24Z</time></trkpt>
<trkpt lat="31.7893" lon="34.96784">
<ele>273</ele>
<time>2022-08-24T00:39:28Z</time></trkpt>
<trkpt lat="31.78923" lon="34.96774">
<ele>272</ele>
<time>2022-08-24T00:39:30Z</time></trkpt>
<trkpt lat="31.78922" lon="34.96762">
<ele>270</ele>
<time>2022-08-24T00:39:32Z</time></trkpt>
<trkpt lat="31.78919" lon="34.96754">
<ele>269</ele>
<time>2022-08-24T00:39:34Z</time></trkpt>
<trkpt lat="31.78904" lon="34.96735">
<ele>269</ele>
<time>2022-08-24T00:39:38Z</time></trkpt>
<trkpt lat="31.78897" lon="34.96722">
<ele>269</ele>
<time>2022-08-24T00:39:41Z</time></trkpt>
<trkpt lat="31.78894" lon="34.96709">
<ele>268</ele>
<time>2022-08-24T00:39:43Z</time></trkpt>
<trkpt lat="31.78896" lon="34.96697">
<ele>266</ele>
<time>2022-08-24T00:39:45Z</time></trkpt>
<trkpt lat="31.78906" lon="34.96679">
<ele>262</ele>
<time>2022-08-24T00:39:49Z</time></trkpt>
<trkpt lat="31.78912" lon="34.96665">
<ele>259</ele>
<time>2022-08-24T00:39:52Z</time></trkpt>
<trkpt lat="31.78913" lon="34.96656">
<ele>258</ele>
<time>2022-08-24T00:39:53Z</time></trkpt>
<trkpt lat="31.78913" lon="34.96645">
<ele>258</ele>
<time>2022-08-24T00:39:55Z</time></trkpt>
<trkpt lat="31.7891" lon="34.96638">
<ele>258</ele>
<time>2022-08-24T00:39:56Z</time></trkpt>
<trkpt lat="31.789" lon="34.96622">
<ele>259</ele>
<time>2022-08-24T00:40:00Z</time></trkpt>
<trkpt lat="31.78893" lon="34.96616">
<ele>260</ele>
<time>2022-08-24T00:40:01Z</time></trkpt>
<trkpt lat="31.78867" lon="34.96601">
<ele>263</ele>
<time>2022-08-24T00:40:07Z</time></trkpt>
<trkpt lat="31.78829" lon="34.96573">
<ele>266</ele>
<time>2022-08-24T00:40:16Z</time></trkpt>
<trkpt lat="31.78772" lon="34.96504">
<ele>265</ele>
<time>2022-08-24T00:40:33Z</time></trkpt>
<trkpt lat="31.78761" lon="34.96493">
<ele>266</ele>
<time>2022-08-24T00:40:36Z</time></trkpt>
<trkpt lat="31.78749" lon="34.96497">
<ele>267</ele>
<time>2022-08-24T00:40:38Z</time></trkpt>
<trkpt lat="31.78714" lon="34.96502">
<ele>272</ele>
<time>2022-08-24T00:40:45Z</time></trkpt>
<trkpt lat="31.78674" lon="34.96516">
<ele>279</ele>
<time>2022-08-24T00:40:53Z</time></trkpt>
<trkpt lat="31.78668" lon="34.96516">
<ele>280</ele>
<time>2022-08-24T00:40:55Z</time></trkpt>
<trkpt lat="31.78662" lon="34.96507">
<ele>279</ele>
<time>2022-08-24T00:40:57Z</time></trkpt>
<trkpt lat="31.78662" lon="34.96495">
<ele>279</ele>
<time>2022-08-24T00:40:59Z</time></trkpt>
<trkpt lat="31.78665" lon="34.96486">
<ele>279</ele>
<time>2022-08-24T00:41:00Z</time></trkpt>
<trkpt lat="31.78675" lon="34.96475">
<ele>279</ele>
<time>2022-08-24T00:41:03Z</time></trkpt>
<trkpt lat="31.78683" lon="34.96472">
<ele>278</ele>
<time>2022-08-24T00:41:05Z</time></trkpt>
<trkpt lat="31.78701" lon="34.96467">
<ele>276</ele>
<time>2022-08-24T00:41:08Z</time></trkpt>
<trkpt lat="31.78703" lon="34.96465">
<ele>276</ele>
<time>2022-08-24T00:41:09Z</time></trkpt>
<trkpt lat="31.78703" lon="34.96466">
<ele>276</ele>
<time>2022-08-24T00:41:09Z</time></trkpt>
<trkpt lat="31.78712" lon="34.9646">
<ele>275</ele>
<time>2022-08-24T00:41:11Z</time></trkpt>
<trkpt lat="31.78749" lon="34.9641">
<ele>275</ele>
<time>2022-08-24T00:41:22Z</time></trkpt>
<trkpt lat="31.788" lon="34.96321">
<ele>273</ele>
<time>2022-08-24T00:41:41Z</time></trkpt>
<trkpt lat="31.78805" lon="34.96308">
<ele>271</ele>
<time>2022-08-24T00:41:43Z</time></trkpt>
<trkpt lat="31.78808" lon="34.96291">
<ele>270</ele>
<time>2022-08-24T00:41:46Z</time></trkpt>
<trkpt lat="31.78806" lon="34.9628">
<ele>270</ele>
<time>2022-08-24T00:41:48Z</time></trkpt>
<trkpt lat="31.78802" lon="34.96271">
<ele>270</ele>
<time>2022-08-24T00:41:50Z</time></trkpt>
<trkpt lat="31.7879" lon="34.96263">
<ele>270</ele>
<time>2022-08-24T00:41:53Z</time></trkpt>
<trkpt lat="31.78769" lon="34.96255">
<ele>271</ele>
<time>2022-08-24T00:41:57Z</time></trkpt>
<trkpt lat="31.78727" lon="34.96235">
<ele>269</ele>
<time>2022-08-24T00:42:06Z</time></trkpt>
<trkpt lat="31.78696" lon="34.96216">
<ele>265</ele>
<time>2022-08-24T00:42:13Z</time></trkpt>
<trkpt lat="31.78674" lon="34.96204">
<ele>263</ele>
<time>2022-08-24T00:42:18Z</time></trkpt>
<trkpt lat="31.78638" lon="34.96189">
<ele>259</ele>
<time>2022-08-24T00:42:26Z</time></trkpt>
<trkpt lat="31.78619" lon="34.96186">
<ele>258</ele>
<time>2022-08-24T00:42:29Z</time></trkpt>
<trkpt lat="31.78606" lon="34.96181">
<ele>257</ele>
<time>2022-08-24T00:42:32Z</time></trkpt>
<trkpt lat="31.78593" lon="34.9617">
<ele>255</ele>
<time>2022-08-24T00:42:35Z</time></trkpt>
<trkpt lat="31.78586" lon="34.96161">
<ele>254</ele>
<time>2022-08-24T00:42:37Z</time></trkpt>
<trkpt lat="31.78578" lon="34.96138">
<ele>253</ele>
<time>2022-08-24T00:42:42Z</time></trkpt>
<trkpt lat="31.78588" lon="34.9609">
<ele>250</ele>
<time>2022-08-24T00:42:50Z</time></trkpt>
<trkpt lat="31.78591" lon="34.96074">
<ele>249</ele>
<time>2022-08-24T00:42:53Z</time></trkpt>
<trkpt lat="31.78591" lon="34.96066">
<ele>249</ele>
<time>2022-08-24T00:42:54Z</time></trkpt>
<trkpt lat="31.78584" lon="34.96032">
<ele>249</ele>
<time>2022-08-24T00:43:00Z</time></trkpt>
<trkpt lat="31.78571" lon="34.95986">
<ele>253</ele>
<time>2022-08-24T00:43:08Z</time></trkpt>
<trkpt lat="31.78571" lon="34.9598">
<ele>254</ele>
<time>2022-08-24T00:43:09Z</time></trkpt>
<trkpt lat="31.7857" lon="34.9597">
<ele>255</ele>
<time>2022-08-24T00:43:11Z</time></trkpt>
<trkpt lat="31.78573" lon="34.95959">
<ele>256</ele>
<time>2022-08-24T00:43:13Z</time></trkpt>
<trkpt lat="31.78578" lon="34.95951">
<ele>256</ele>
<time>2022-08-24T00:43:15Z</time></trkpt>
<trkpt lat="31.78587" lon="34.95943">
<ele>256</ele>
<time>2022-08-24T00:43:17Z</time></trkpt>
<trkpt lat="31.78619" lon="34.95923">
<ele>255</ele>
<time>2022-08-24T00:43:24Z</time></trkpt>
<trkpt lat="31.78674" lon="34.95874">
<ele>258</ele>
<time>2022-08-24T00:43:38Z</time></trkpt>
<trkpt lat="31.78714" lon="34.95844">
<ele>259</ele>
<time>2022-08-24T00:43:48Z</time></trkpt>
<trkpt lat="31.78704" lon="34.95835">
<ele>261</ele>
<time>2022-08-24T00:43:50Z</time></trkpt>
<trkpt lat="31.78695" lon="34.95833">
<ele>262</ele>
<time>2022-08-24T00:43:52Z</time></trkpt>
<trkpt lat="31.78661" lon="34.95837">
<ele>265</ele>
<time>2022-08-24T00:43:59Z</time></trkpt>
<trkpt lat="31.78609" lon="34.9585">
<ele>268</ele>
<time>2022-08-24T00:44:10Z</time></trkpt>
<trkpt lat="31.78591" lon="34.9585">
<ele>270</ele>
<time>2022-08-24T00:44:13Z</time></trkpt>
<trkpt lat="31.78584" lon="34.95848">
<ele>271</ele>
<time>2022-08-24T00:44:15Z</time></trkpt>
<trkpt lat="31.78575" lon="34.95842">
<ele>273</ele>
<time>2022-08-24T00:44:17Z</time></trkpt>
<trkpt lat="31.78571" lon="34.95837">
<ele>274</ele>
<time>2022-08-24T00:44:18Z</time></trkpt>
<trkpt lat="31.7857" lon="34.95827">
<ele>276</ele>
<time>2022-08-24T00:44:20Z</time></trkpt>
<trkpt lat="31.78576" lon="34.95817">
<ele>277</ele>
<time>2022-08-24T00:44:22Z</time></trkpt>
<trkpt lat="31.78602" lon="34.95797">
<ele>278</ele>
<time>2022-08-24T00:44:28Z</time></trkpt>
<trkpt lat="31.78623" lon="34.95789">
<ele>277</ele>
<time>2022-08-24T00:44:32Z</time></trkpt>
<trkpt lat="31.78647" lon="34.95783">
<ele>275</ele>
<time>2022-08-24T00:44:37Z</time></trkpt>
<trkpt lat="31.78664" lon="34.95775">
<ele>274</ele>
<time>2022-08-24T00:44:41Z</time></trkpt>
<trkpt lat="31.7867" lon="34.95768">
<ele>275</ele>
<time>2022-08-24T00:44:43Z</time></trkpt>
<trkpt lat="31.78674" lon="34.95759">
<ele>276</ele>
<time>2022-08-24T00:44:44Z</time></trkpt>
<trkpt lat="31.78673" lon="34.95746">
<ele>278</ele>
<time>2022-08-24T00:44:47Z</time></trkpt>
<trkpt lat="31.78668" lon="34.95731">
<ele>280</ele>
<time>2022-08-24T00:44:49Z</time></trkpt>
<trkpt lat="31.78667" lon="34.95723">
<ele>281</ele>
<time>2022-08-24T00:44:51Z</time></trkpt>
<trkpt lat="31.78669" lon="34.95715">
<ele>282</ele>
<time>2022-08-24T00:44:52Z</time></trkpt>
<trkpt lat="31.78673" lon="34.95709">
<ele>282</ele>
<time>2022-08-24T00:44:53Z</time></trkpt>
<trkpt lat="31.78688" lon="34.957">
<ele>282</ele>
<time>2022-08-24T00:44:57Z</time></trkpt>
<trkpt lat="31.78737" lon="34.95686">
<ele>278</ele>
<time>2022-08-24T00:45:07Z</time></trkpt>
<trkpt lat="31.78752" lon="34.95677">
<ele>278</ele>
<time>2022-08-24T00:45:10Z</time></trkpt>
<trkpt lat="31.7876" lon="34.95666">
<ele>278</ele>
<time>2022-08-24T00:45:13Z</time></trkpt>
<trkpt lat="31.78769" lon="34.95649">
<ele>279</ele>
<time>2022-08-24T00:45:16Z</time></trkpt>
<trkpt lat="31.78778" lon="34.95627">
<ele>281</ele>
<time>2022-08-24T00:45:20Z</time></trkpt>
<trkpt lat="31.78789" lon="34.95593">
<ele>283</ele>
<time>2022-08-24T00:45:26Z</time></trkpt>
<trkpt lat="31.78793" lon="34.95585">
<ele>284</ele>
<time>2022-08-24T00:45:28Z</time></trkpt>
<trkpt lat="31.78803" lon="34.9557">
<ele>283</ele>
<time>2022-08-24T00:45:31Z</time></trkpt>
<trkpt lat="31.78823" lon="34.95548">
<ele>281</ele>
<time>2022-08-24T00:45:37Z</time></trkpt>
<trkpt lat="31.78824" lon="34.95541">
<ele>281</ele>
<time>2022-08-24T00:45:38Z</time></trkpt>
<trkpt lat="31.78823" lon="34.95534">
<ele>281</ele>
<time>2022-08-24T00:45:39Z</time></trkpt>
<trkpt lat="31.78821" lon="34.95531">
<ele>282</ele>
<time>2022-08-24T00:45:40Z</time></trkpt>
<trkpt lat="31.7881" lon="34.95519">
<ele>283</ele>
<time>2022-08-24T00:45:43Z</time></trkpt>
<trkpt lat="31.78801" lon="34.95518">
<ele>284</ele>
<time>2022-08-24T00:45:45Z</time></trkpt>
<trkpt lat="31.78797" lon="34.95518">
<ele>284</ele>
<time>2022-08-24T00:45:45Z</time></trkpt>
<trkpt lat="31.78788" lon="34.9552">
<ele>285</ele>
<time>2022-08-24T00:45:47Z</time></trkpt>
<trkpt lat="31.78778" lon="34.95523">
<ele>286</ele>
<time>2022-08-24T00:45:49Z</time></trkpt>
<trkpt lat="31.78736" lon="34.95537">
<ele>290</ele>
<time>2022-08-24T00:45:58Z</time></trkpt>
<trkpt lat="31.78672" lon="34.95549">
<ele>295</ele>
<time>2022-08-24T00:46:11Z</time></trkpt>
<trkpt lat="31.78644" lon="34.95557">
<ele>297</ele>
<time>2022-08-24T00:46:17Z</time></trkpt>
<trkpt lat="31.78622" lon="34.9557">
<ele>299</ele>
<time>2022-08-24T00:46:22Z</time></trkpt>
<trkpt lat="31.786" lon="34.95592">
<ele>302</ele>
<time>2022-08-24T00:46:28Z</time></trkpt>
<trkpt lat="31.78572" lon="34.95605">
<ele>302</ele>
<time>2022-08-24T00:46:34Z</time></trkpt>
<trkpt lat="31.7856" lon="34.95613">
<ele>301</ele>
<time>2022-08-24T00:46:36Z</time></trkpt>
<trkpt lat="31.78502" lon="34.95665">
<ele>305</ele>
<time>2022-08-24T00:46:51Z</time></trkpt>
<trkpt lat="31.78463" lon="34.95697">
<ele>303</ele>
<time>2022-08-24T00:47:01Z</time></trkpt>
<trkpt lat="31.78451" lon="34.95704">
<ele>303</ele>
<time>2022-08-24T00:47:03Z</time></trkpt>
<trkpt lat="31.78437" lon="34.9571">
<ele>303</ele>
<time>2022-08-24T00:47:06Z</time></trkpt>
<trkpt lat="31.78388" lon="34.95727">
<ele>306</ele>
<time>2022-08-24T00:47:16Z</time></trkpt>
<trkpt lat="31.78347" lon="34.95738">
<ele>309</ele>
<time>2022-08-24T00:47:25Z</time></trkpt>
<trkpt lat="31.78343" lon="34.95741">
<ele>310</ele>
<time>2022-08-24T00:47:26Z</time></trkpt>
<trkpt lat="31.78337" lon="34.9575">
<ele>312</ele>
<time>2022-08-24T00:47:28Z</time></trkpt>
<trkpt lat="31.78334" lon="34.95765">
<ele>311</ele>
<time>2022-08-24T00:47:30Z</time></trkpt>
<trkpt lat="31.78331" lon="34.95773">
<ele>311</ele>
<time>2022-08-24T00:47:32Z</time></trkpt>
<trkpt lat="31.78327" lon="34.95779">
<ele>311</ele>
<time>2022-08-24T00:47:33Z</time></trkpt>
<trkpt lat="31.78321" lon="34.95785">
<ele>312</ele>
<time>2022-08-24T00:47:35Z</time></trkpt>
<trkpt lat="31.78306" lon="34.95794">
<ele>314</ele>
<time>2022-08-24T00:47:38Z</time></trkpt>
<trkpt lat="31.78292" lon="34.95797">
<ele>316</ele>
<time>2022-08-24T00:47:41Z</time></trkpt>
<trkpt lat="31.78267" lon="34.95795">
<ele>319</ele>
<time>2022-08-24T00:47:46Z</time></trkpt>
<trkpt lat="31.78255" lon="34.95797">
<ele>321</ele>
<time>2022-08-24T00:47:48Z</time></trkpt>
<trkpt lat="31.78236" lon="34.95804">
<ele>322</ele>
<time>2022-08-24T00:47:52Z</time></trkpt>
<trkpt lat="31.78224" lon="34.95811">
<ele>323</ele>
<time>2022-08-24T00:47:55Z</time></trkpt>
<trkpt lat="31.78211" lon="34.95823">
<ele>325</ele>
<time>2022-08-24T00:47:58Z</time></trkpt>
<trkpt lat="31.78201" lon="34.95827">
<ele>326</ele>
<time>2022-08-24T00:48:01Z</time></trkpt>
<trkpt lat="31.78183" lon="34.95835">
<ele>328</ele>
<time>2022-08-24T00:48:04Z</time></trkpt>
<trkpt lat="31.78156" lon="34.95841">
<ele>328</ele>
<time>2022-08-24T00:48:10Z</time></trkpt>
<trkpt lat="31.78143" lon="34.9585">
<ele>328</ele>
<time>2022-08-24T00:48:13Z</time></trkpt>
<trkpt lat="31.7813" lon="34.95865">
<ele>328</ele>
<time>2022-08-24T00:48:17Z</time></trkpt>
<trkpt lat="31.78102" lon="34.95906">
<ele>331</ele>
<time>2022-08-24T00:48:26Z</time></trkpt>
<trkpt lat="31.78093" lon="34.95922">
<ele>333</ele>
<time>2022-08-24T00:48:29Z</time></trkpt>
<trkpt lat="31.78085" lon="34.95943">
<ele>335</ele>
<time>2022-08-24T00:48:33Z</time></trkpt>
<trkpt lat="31.78074" lon="34.95966">
<ele>335</ele>
<time>2022-08-24T00:48:37Z</time></trkpt>
<trkpt lat="31.78069" lon="34.95989">
<ele>336</ele>
<time>2022-08-24T00:48:41Z</time></trkpt>
<trkpt lat="31.7806" lon="34.96015">
<ele>338</ele>
<time>2022-08-24T00:48:46Z</time></trkpt>
<trkpt lat="31.78059" lon="34.96037">
<ele>339</ele>
<time>2022-08-24T00:48:50Z</time></trkpt>
<trkpt lat="31.78055" lon="34.96052">
<ele>340</ele>
<time>2022-08-24T00:48:52Z</time></trkpt>
<trkpt lat="31.78031" lon="34.96107">
<ele>344</ele>
<time>2022-08-24T00:49:03Z</time></trkpt>
<trkpt lat="31.78022" lon="34.96121">
<ele>345</ele>
<time>2022-08-24T00:49:06Z</time></trkpt>
<trkpt lat="31.77995" lon="34.9615">
<ele>349</ele>
<time>2022-08-24T00:49:13Z</time></trkpt>
<trkpt lat="31.77983" lon="34.96159">
<ele>348</ele>
<time>2022-08-24T00:49:16Z</time></trkpt>
<trkpt lat="31.77958" lon="34.96168">
<ele>347</ele>
<time>2022-08-24T00:49:21Z</time></trkpt>
<trkpt lat="31.77947" lon="34.96175">
<ele>346</ele>
<time>2022-08-24T00:49:24Z</time></trkpt>
<trkpt lat="31.77939" lon="34.96189">
<ele>346</ele>
<time>2022-08-24T00:49:27Z</time></trkpt>
<trkpt lat="31.77927" lon="34.96247">
<ele>348</ele>
<time>2022-08-24T00:49:37Z</time></trkpt>
<trkpt lat="31.77922" lon="34.9626">
<ele>349</ele>
<time>2022-08-24T00:49:39Z</time></trkpt>
<trkpt lat="31.7791" lon="34.96283">
<ele>348</ele>
<time>2022-08-24T00:49:44Z</time></trkpt>
<trkpt lat="31.77902" lon="34.96294">
<ele>346</ele>
<time>2022-08-24T00:49:46Z</time></trkpt>
<trkpt lat="31.77895" lon="34.96299">
<ele>345</ele>
<time>2022-08-24T00:49:48Z</time></trkpt>
<trkpt lat="31.7789" lon="34.96302">
<ele>345</ele>
<time>2022-08-24T00:49:49Z</time></trkpt>
<trkpt lat="31.77863" lon="34.96316">
<ele>341</ele>
<time>2022-08-24T00:49:55Z</time></trkpt>
<trkpt lat="31.77857" lon="34.96326">
<ele>342</ele>
<time>2022-08-24T00:49:57Z</time></trkpt>
<trkpt lat="31.77855" lon="34.96332">
<ele>343</ele>
<time>2022-08-24T00:49:58Z</time></trkpt>
<trkpt lat="31.77858" lon="34.96372">
<ele>346</ele>
<time>2022-08-24T00:50:05Z</time></trkpt>
<trkpt lat="31.77855" lon="34.96387">
<ele>347</ele>
<time>2022-08-24T00:50:08Z</time></trkpt>
<trkpt lat="31.77846" lon="34.96416">
<ele>349</ele>
<time>2022-08-24T00:50:13Z</time></trkpt>
<trkpt lat="31.77845" lon="34.96424">
<ele>349</ele>
<time>2022-08-24T00:50:14Z</time></trkpt>
<trkpt lat="31.77849" lon="34.96441">
<ele>350</ele>
<time>2022-08-24T00:50:17Z</time></trkpt>
<trkpt lat="31.77847" lon="34.96485">
<ele>353</ele>
<time>2022-08-24T00:50:25Z</time></trkpt>
<trkpt lat="31.77827" lon="34.96571">
<ele>350</ele>
<time>2022-08-24T00:50:40Z</time></trkpt>
<trkpt lat="31.77822" lon="34.96624">
<ele>350</ele>
<time>2022-08-24T00:50:49Z</time></trkpt>
<trkpt lat="31.77815" lon="34.9665">
<ele>351</ele>
<time>2022-08-24T00:50:54Z</time></trkpt>
<trkpt lat="31.77797" lon="34.96653">
<ele>351</ele>
<time>2022-08-24T00:50:57Z</time></trkpt>
<trkpt lat="31.77747" lon="34.96677">
<ele>357</ele>
<time>2022-08-24T00:51:08Z</time></trkpt>
<trkpt lat="31.77712" lon="34.96688">
<ele>360</ele>
<time>2022-08-24T00:51:16Z</time></trkpt>
<trkpt lat="31.77702" lon="34.96689">
<ele>360</ele>
<time>2022-08-24T00:51:18Z</time></trkpt>
<trkpt lat="31.77671" lon="34.96686">
<ele>360</ele>
<time>2022-08-24T00:51:24Z</time></trkpt>
<trkpt lat="31.77621" lon="34.96676">
<ele>358</ele>
<time>2022-08-24T00:51:34Z</time></trkpt>
<trkpt lat="31.77608" lon="34.96677">
<ele>359</ele>
<time>2022-08-24T00:51:37Z</time></trkpt>
<trkpt lat="31.776" lon="34.9668">
<ele>359</ele>
<time>2022-08-24T00:51:38Z</time></trkpt>
<trkpt lat="31.77591" lon="34.96688">
<ele>360</ele>
<time>2022-08-24T00:51:41Z</time></trkpt>
<trkpt lat="31.77586" lon="34.96696">
<ele>361</ele>
<time>2022-08-24T00:51:42Z</time></trkpt>
<trkpt lat="31.77581" lon="34.96707">
<ele>361</ele>
<time>2022-08-24T00:51:44Z</time></trkpt>
<trkpt lat="31.7758" lon="34.96715">
<ele>362</ele>
<time>2022-08-24T00:51:46Z</time></trkpt>
<trkpt lat="31.77581" lon="34.96725">
<ele>363</ele>
<time>2022-08-24T00:51:47Z</time></trkpt>
<trkpt lat="31.77588" lon="34.96738">
<ele>365</ele>
<time>2022-08-24T00:51:50Z</time></trkpt>
<trkpt lat="31.77595" lon="34.96748">
<ele>367</ele>
<time>2022-08-24T00:51:52Z</time></trkpt>
<trkpt lat="31.77626" lon="34.96779">
<ele>369</ele>
<time>2022-08-24T00:52:00Z</time></trkpt>
<trkpt lat="31.77658" lon="34.96817">
<ele>373</ele>
<time>2022-08-24T00:52:10Z</time></trkpt>
<trkpt lat="31.77668" lon="34.96832">
<ele>375</ele>
<time>2022-08-24T00:52:13Z</time></trkpt>
<trkpt lat="31.77681" lon="34.96858">
<ele>374</ele>
<time>2022-08-24T00:52:18Z</time></trkpt>
<trkpt lat="31.77686" lon="34.96881">
<ele>372</ele>
<time>2022-08-24T00:52:22Z</time></trkpt>
<trkpt lat="31.77688" lon="34.96925">
<ele>369</ele>
<time>2022-08-24T00:52:29Z</time></trkpt>
<trkpt lat="31.77699" lon="34.97005">
<ele>371</ele>
<time>2022-08-24T00:52:43Z</time></trkpt>
<trkpt lat="31.77697" lon="34.97025">
<ele>372</ele>
<time>2022-08-24T00:52:47Z</time></trkpt>
<trkpt lat="31.77695" lon="34.97034">
<ele>373</ele>
<time>2022-08-24T00:52:48Z</time></trkpt>
<trkpt lat="31.77691" lon="34.97041">
<ele>373</ele>
<time>2022-08-24T00:52:50Z</time></trkpt>
<trkpt lat="31.7768" lon="34.97054">
<ele>374</ele>
<time>2022-08-24T00:52:53Z</time></trkpt>
<trkpt lat="31.77671" lon="34.97059">
<ele>374</ele>
<time>2022-08-24T00:52:55Z</time></trkpt>
<trkpt lat="31.7764" lon="34.97069">
<ele>375</ele>
<time>2022-08-24T00:53:01Z</time></trkpt>
<trkpt lat="31.77618" lon="34.97074">
<ele>375</ele>
<time>2022-08-24T00:53:06Z</time></trkpt>
<trkpt lat="31.77579" lon="34.9708">
<ele>375</ele>
<time>2022-08-24T00:53:14Z</time></trkpt>
<trkpt lat="31.77564" lon="34.97086">
<ele>374</ele>
<time>2022-08-24T00:53:17Z</time></trkpt>
<trkpt lat="31.77558" lon="34.97092">
<ele>374</ele>
<time>2022-08-24T00:53:18Z</time></trkpt>
<trkpt lat="31.77552" lon="34.97103">
<ele>374</ele>
<time>2022-08-24T00:53:21Z</time></trkpt>
<trkpt lat="31.77548" lon="34.97117">
<ele>374</ele>
<time>2022-08-24T00:53:23Z</time></trkpt>
<trkpt lat="31.77548" lon="34.9712">
<ele>374</ele>
<time>2022-08-24T00:53:24Z</time></trkpt>
<trkpt lat="31.77547" lon="34.97129">
<ele>375</ele>
<time>2022-08-24T00:53:25Z</time></trkpt>
<trkpt lat="31.77548" lon="34.97212">
<ele>379</ele>
<time>2022-08-24T00:53:39Z</time></trkpt>
<trkpt lat="31.77546" lon="34.97229">
<ele>379</ele>
<time>2022-08-24T00:53:42Z</time></trkpt>
<trkpt lat="31.77543" lon="34.97247">
<ele>379</ele>
<time>2022-08-24T00:53:45Z</time></trkpt>
<trkpt lat="31.77521" lon="34.97311">
<ele>378</ele>
<time>2022-08-24T00:53:57Z</time></trkpt>
<trkpt lat="31.77519" lon="34.97326">
<ele>379</ele>
<time>2022-08-24T00:54:00Z</time></trkpt>
<trkpt lat="31.7752" lon="34.9734">
<ele>379</ele>
<time>2022-08-24T00:54:02Z</time></trkpt>
<trkpt lat="31.77524" lon="34.97357">
<ele>378</ele>
<time>2022-08-24T00:54:05Z</time></trkpt>
<trkpt lat="31.77529" lon="34.97369">
<ele>378</ele>
<time>2022-08-24T00:54:07Z</time></trkpt>
<trkpt lat="31.77536" lon="34.9738">
<ele>379</ele>
<time>2022-08-24T00:54:10Z</time></trkpt>
<trkpt lat="31.77566" lon="34.97411">
<ele>381</ele>
<time>2022-08-24T00:54:18Z</time></trkpt>
<trkpt lat="31.77584" lon="34.97432">
<ele>383</ele>
<time>2022-08-24T00:54:23Z</time></trkpt>
<trkpt lat="31.7759" lon="34.97448">
<ele>384</ele>
<time>2022-08-24T00:54:26Z</time></trkpt>
<trkpt lat="31.77594" lon="34.97469">
<ele>385</ele>
<time>2022-08-24T00:54:29Z</time></trkpt>
<trkpt lat="31.77584" lon="34.97487">
<ele>384</ele>
<time>2022-08-24T00:54:33Z</time></trkpt>
<trkpt lat="31.7756" lon="34.97549">
<ele>384</ele>
<time>2022-08-24T00:54:45Z</time></trkpt>
<trkpt lat="31.77555" lon="34.97566">
<ele>384</ele>
<time>2022-08-24T00:54:48Z</time></trkpt>
<trkpt lat="31.77553" lon="34.97584">
<ele>385</ele>
<time>2022-08-24T00:54:51Z</time></trkpt>
<trkpt lat="31.77554" lon="34.97597">
<ele>385</ele>
<time>2022-08-24T00:54:53Z</time></trkpt>
<trkpt lat="31.77558" lon="34.9761">
<ele>386</ele>
<time>2022-08-24T00:54:55Z</time></trkpt>
<trkpt lat="31.77565" lon="34.97626">
<ele>387</ele>
<time>2022-08-24T00:54:59Z</time></trkpt>
<trkpt lat="31.77579" lon="34.97649">
<ele>390</ele>
<time>2022-08-24T00:55:03Z</time></trkpt>
<trkpt lat="31.77592" lon="34.97666">
<ele>392</ele>
<time>2022-08-24T00:55:07Z</time></trkpt>
<trkpt lat="31.77612" lon="34.97686">
<ele>392</ele>
<time>2022-08-24T00:55:13Z</time></trkpt>
<trkpt lat="31.77598" lon="34.97715">
<ele>391</ele>
<time>2022-08-24T00:55:18Z</time></trkpt>
<trkpt lat="31.77604" lon="34.97745">
<ele>391</ele>
<time>2022-08-24T00:55:23Z</time></trkpt>
<trkpt lat="31.7759444" lon="34.9782147">
<ele>396</ele>
<time>2022-08-24T00:55:37Z</time></trkpt>
<trkpt lat="31.775943" lon="34.978249">
<ele>396</ele>
<time>2022-08-24T00:55:37Z</time></trkpt>
<trkpt lat="31.77581" lon="34.978416">
<ele>397</ele>
<time>2022-08-24T00:55:41Z</time></trkpt>
<trkpt lat="31.775722" lon="34.978632">
<ele>397</ele>
<time>2022-08-24T00:55:45Z</time></trkpt>
<trkpt lat="31.7754" lon="34.979074">
<ele>398</ele>
<time>2022-08-24T00:55:55Z</time></trkpt>
<trkpt lat="31.77512" lon="34.979502">
<ele>398</ele>
<time>2022-08-24T00:56:04Z</time></trkpt>
<trkpt lat="31.775051" lon="34.97967">
<ele>399</ele>
<time>2022-08-24T00:56:07Z</time></trkpt>
<trkpt lat="31.775018" lon="34.979947">
<ele>400</ele>
<time>2022-08-24T00:56:12Z</time></trkpt>
<trkpt lat="31.775033" lon="34.980123">
<ele>400</ele>
<time>2022-08-24T00:56:15Z</time></trkpt>
<trkpt lat="31.775081" lon="34.980268">
<ele>400</ele>
<time>2022-08-24T00:56:18Z</time></trkpt>
<trkpt lat="31.775312" lon="34.980703">
<ele>399</ele>
<time>2022-08-24T00:56:27Z</time></trkpt>
<trkpt lat="31.775358" lon="34.98077">
<ele>399</ele>
<time>2022-08-24T00:56:28Z</time></trkpt>
<trkpt lat="31.775532" lon="34.980934">
<ele>397</ele>
<time>2022-08-24T00:56:33Z</time></trkpt>
<trkpt lat="31.776215" lon="34.981343">
<ele>393</ele>
<time>2022-08-24T00:56:48Z</time></trkpt>
<trkpt lat="31.776323" lon="34.981436">
<ele>393</ele>
<time>2022-08-24T00:56:51Z</time></trkpt>
<trkpt lat="31.776366" lon="34.981541">
<ele>393</ele>
<time>2022-08-24T00:56:53Z</time></trkpt>
<trkpt lat="31.776346" lon="34.98164">
<ele>394</ele>
<time>2022-08-24T00:56:54Z</time></trkpt>
<trkpt lat="31.776219" lon="34.981859">
<ele>392</ele>
<time>2022-08-24T00:56:59Z</time></trkpt>
<trkpt lat="31.776049" lon="34.982083">
<ele>390</ele>
<time>2022-08-24T00:57:04Z</time></trkpt>
<trkpt lat="31.775865" lon="34.982247">
<ele>389</ele>
<time>2022-08-24T00:57:09Z</time></trkpt>
<trkpt lat="31.775685" lon="34.98235">
<ele>387</ele>
<time>2022-08-24T00:57:13Z</time></trkpt>
<trkpt lat="31.775506" lon="34.982402">
<ele>385</ele>
<time>2022-08-24T00:57:16Z</time></trkpt>
<trkpt lat="31.775336" lon="34.98241">
<ele>384</ele>
<time>2022-08-24T00:57:20Z</time></trkpt>
<trkpt lat="31.774693" lon="34.982279">
<ele>389</ele>
<time>2022-08-24T00:57:33Z</time></trkpt>
<trkpt lat="31.774562" lon="34.982304">
<ele>389</ele>
<time>2022-08-24T00:57:35Z</time></trkpt>
<trkpt lat="31.774443" lon="34.98237">
<ele>389</ele>
<time>2022-08-24T00:57:38Z</time></trkpt>
<trkpt lat="31.774377" lon="34.982436">
<ele>388</ele>
<time>2022-08-24T00:57:40Z</time></trkpt>
<trkpt lat="31.774024" lon="34.983062">
<ele>378</ele>
<time>2022-08-24T00:57:53Z</time></trkpt>
<trkpt lat="31.773714" lon="34.983667">
<ele>373</ele>
<time>2022-08-24T00:58:05Z</time></trkpt>
<trkpt lat="31.773642" lon="34.983851">
<ele>372</ele>
<time>2022-08-24T00:58:08Z</time></trkpt>
<trkpt lat="31.773919" lon="34.983999">
<ele>371</ele>
<time>2022-08-24T00:58:14Z</time></trkpt>
<trkpt lat="31.774243" lon="34.983915">
<ele>371</ele>
<time>2022-08-24T00:58:21Z</time></trkpt>
<trkpt lat="31.774585" lon="34.983913">
<ele>367</ele>
<time>2022-08-24T00:58:28Z</time></trkpt>
<trkpt lat="31.774923" lon="34.983935">
<ele>364</ele>
<time>2022-08-24T00:58:34Z</time></trkpt>
<trkpt lat="31.775107" lon="34.983923">
<ele>363</ele>
<time>2022-08-24T00:58:38Z</time></trkpt>
<trkpt lat="31.7755505" lon="34.983992">
<ele>357</ele>
<time>2022-08-24T00:58:47Z</time></trkpt>
<trkpt lat="31.77577" lon="34.98404">
<ele>354</ele>
<time>2022-08-24T00:58:52Z</time></trkpt>
<trkpt lat="31.77584" lon="34.98407">
<ele>353</ele>
<time>2022-08-24T00:58:53Z</time></trkpt>
<trkpt lat="31.77593" lon="34.98413">
<ele>351</ele>
<time>2022-08-24T00:58:55Z</time></trkpt>
<trkpt lat="31.77608" lon="34.98426">
<ele>350</ele>
<time>2022-08-24T00:58:59Z</time></trkpt>
<trkpt lat="31.77619" lon="34.98438">
<ele>349</ele>
<time>2022-08-24T00:59:02Z</time></trkpt>
<trkpt lat="31.7762" lon="34.98441">
<ele>349</ele>
<time>2022-08-24T00:59:02Z</time></trkpt>
<trkpt lat="31.77625" lon="34.98449">
<ele>349</ele>
<time>2022-08-24T00:59:04Z</time></trkpt>
<trkpt lat="31.7763" lon="34.98462">
<ele>349</ele>
<time>2022-08-24T00:59:07Z</time></trkpt>
<trkpt lat="31.77637" lon="34.98504">
<ele>349</ele>
<time>2022-08-24T00:59:14Z</time></trkpt>
<trkpt lat="31.77651" lon="34.98551">
<ele>348</ele>
<time>2022-08-24T00:59:22Z</time></trkpt>
<trkpt lat="31.77659" lon="34.9859">
<ele>346</ele>
<time>2022-08-24T00:59:29Z</time></trkpt>
<trkpt lat="31.7766" lon="34.98611">
<ele>345</ele>
<time>2022-08-24T00:59:33Z</time></trkpt>
<trkpt lat="31.77664" lon="34.98624">
<ele>343</ele>
<time>2022-08-24T00:59:35Z</time></trkpt>
<trkpt lat="31.7767" lon="34.98641">
<ele>341</ele>
<time>2022-08-24T00:59:38Z</time></trkpt>
<trkpt lat="31.77672" lon="34.9866">
<ele>340</ele>
<time>2022-08-24T00:59:41Z</time></trkpt>
<trkpt lat="31.77692" lon="34.98694">
<ele>339</ele>
<time>2022-08-24T00:59:49Z</time></trkpt>
<trkpt lat="31.77713" lon="34.98725">
<ele>338</ele>
<time>2022-08-24T00:59:55Z</time></trkpt>
<trkpt lat="31.77759" lon="34.98767">
<ele>339</ele>
<time>2022-08-24T01:00:07Z</time></trkpt>
<trkpt lat="31.77772" lon="34.98777">
<ele>340</ele>
<time>2022-08-24T01:00:10Z</time></trkpt>
<trkpt lat="31.778" lon="34.98794">
<ele>341</ele>
<time>2022-08-24T01:00:16Z</time></trkpt>
<trkpt lat="31.77844" lon="34.98811">
<ele>341</ele>
<time>2022-08-24T01:00:26Z</time></trkpt>
<trkpt lat="31.77855" lon="34.98819">
<ele>342</ele>
<time>2022-08-24T01:00:28Z</time></trkpt>
<trkpt lat="31.77872" lon="34.98836">
<ele>343</ele>
<time>2022-08-24T01:00:33Z</time></trkpt>
<trkpt lat="31.77879" lon="34.98845">
<ele>343</ele>
<time>2022-08-24T01:00:35Z</time></trkpt>
<trkpt lat="31.77883" lon="34.98859">
<ele>343</ele>
<time>2022-08-24T01:00:37Z</time></trkpt>
<trkpt lat="31.77883" lon="34.98861">
<ele>343</ele>
<time>2022-08-24T01:00:38Z</time></trkpt>
<trkpt lat="31.77882" lon="34.98866">
<ele>343</ele>
<time>2022-08-24T01:00:39Z</time></trkpt>
<trkpt lat="31.77856" lon="34.9892">
<ele>349</ele>
<time>2022-08-24T01:00:49Z</time></trkpt>
<trkpt lat="31.77852" lon="34.98933">
<ele>348</ele>
<time>2022-08-24T01:00:51Z</time></trkpt>
<trkpt lat="31.77853" lon="34.99014">
<ele>342</ele>
<time>2022-08-24T01:01:05Z</time></trkpt>
<trkpt lat="31.77854" lon="34.9903">
<ele>341</ele>
<time>2022-08-24T01:01:08Z</time></trkpt>
<trkpt lat="31.77859" lon="34.99042">
<ele>340</ele>
<time>2022-08-24T01:01:10Z</time></trkpt>
<trkpt lat="31.77864" lon="34.99051">
<ele>339</ele>
<time>2022-08-24T01:01:12Z</time></trkpt>
<trkpt lat="31.77876" lon="34.99062">
<ele>338</ele>
<time>2022-08-24T01:01:15Z</time></trkpt>
<trkpt lat="31.77909" lon="34.99075">
<ele>336</ele>
<time>2022-08-24T01:01:22Z</time></trkpt>
<trkpt lat="31.78018" lon="34.99157">
<ele>343</ele>
<time>2022-08-24T01:01:48Z</time></trkpt>
<trkpt lat="31.78031" lon="34.99165">
<ele>344</ele>
<time>2022-08-24T01:01:51Z</time></trkpt>
<trkpt lat="31.7804" lon="34.99168">
<ele>344</ele>
<time>2022-08-24T01:01:53Z</time></trkpt>
<trkpt lat="31.78093" lon="34.99178">
<ele>342</ele>
<time>2022-08-24T01:02:04Z</time></trkpt>
<trkpt lat="31.7810679" lon="34.9918273">
<ele>342</ele>
<time>2022-08-24T01:02:06Z</time></trkpt>
<trkpt lat="31.781632" lon="34.992015">
<ele>341</ele>
<time>2022-08-24T01:02:18Z</time></trkpt>
<trkpt lat="31.78168" lon="34.99249">
<ele>344</ele>
<time>2022-08-24T01:02:26Z</time></trkpt>
<trkpt lat="31.781671" lon="34.992545">
<ele>343</ele>
<time>2022-08-24T01:02:27Z</time></trkpt>
<trkpt lat="31.781811" lon="34.992756">
<ele>342</ele>
<time>2022-08-24T01:02:32Z</time></trkpt>
<trkpt lat="31.781984" lon="34.992808">
<ele>343</ele>
<time>2022-08-24T01:02:35Z</time></trkpt>
<trkpt lat="31.782164" lon="34.992948">
<ele>343</ele>
<time>2022-08-24T01:02:40Z</time></trkpt>
<trkpt lat="31.782467" lon="34.993248">
<ele>342</ele>
<time>2022-08-24T01:02:48Z</time></trkpt>
<trkpt lat="31.782699" lon="34.993446">
<ele>341</ele>
<time>2022-08-24T01:02:53Z</time></trkpt>
<trkpt lat="31.783245" lon="34.993769">
<ele>342</ele>
<time>2022-08-24T01:03:06Z</time></trkpt>
<trkpt lat="31.783457" lon="34.993931">
<ele>342</ele>
<time>2022-08-24T01:03:11Z</time></trkpt>
<trkpt lat="31.783561" lon="34.994036">
<ele>342</ele>
<time>2022-08-24T01:03:14Z</time></trkpt>
<trkpt lat="31.784048" lon="34.994548">
<ele>342</ele>
<time>2022-08-24T01:03:27Z</time></trkpt>
<trkpt lat="31.78444" lon="34.995099">
<ele>339</ele>
<time>2022-08-24T01:03:39Z</time></trkpt>
<trkpt lat="31.784592" lon="34.995336">
<ele>338</ele>
<time>2022-08-24T01:03:44Z</time></trkpt>
<trkpt lat="31.784719" lon="34.995592">
<ele>336</ele>
<time>2022-08-24T01:03:49Z</time></trkpt>
<trkpt lat="31.78483" lon="34.995904">
<ele>334</ele>
<time>2022-08-24T01:03:55Z</time></trkpt>
<trkpt lat="31.78511" lon="34.996545">
<ele>331</ele>
<time>2022-08-24T01:04:07Z</time></trkpt>
<trkpt lat="31.785324" lon="34.996937">
<ele>328</ele>
<time>2022-08-24T01:04:15Z</time></trkpt>
<trkpt lat="31.785619" lon="34.997363">
<ele>326</ele>
<time>2022-08-24T01:04:24Z</time></trkpt>
<trkpt lat="31.785961" lon="34.99806">
<ele>317</ele>
<time>2022-08-24T01:04:38Z</time></trkpt>
<trkpt lat="31.786094" lon="34.998261">
<ele>314</ele>
<time>2022-08-24T01:04:42Z</time></trkpt>
<trkpt lat="31.786148" lon="34.998317">
<ele>313</ele>
<time>2022-08-24T01:04:44Z</time></trkpt>
<trkpt lat="31.786384" lon="34.998335">
<ele>313</ele>
<time>2022-08-24T01:04:49Z</time></trkpt>
<trkpt lat="31.786502" lon="34.998326">
<ele>313</ele>
<time>2022-08-24T01:04:51Z</time></trkpt>
<trkpt lat="31.786841" lon="34.998068">
<ele>318</ele>
<time>2022-08-24T01:04:59Z</time></trkpt>
<trkpt lat="31.787111" lon="34.99787">
<ele>321</ele>
<time>2022-08-24T01:05:05Z</time></trkpt>
<trkpt lat="31.787122" lon="34.99804">
<ele>320</ele>
<time>2022-08-24T01:05:08Z</time></trkpt>
<trkpt lat="31.7872125" lon="34.9981633">
<ele>320</ele>
<time>2022-08-24T01:05:11Z</time></trkpt>
<trkpt lat="31.78727" lon="34.99824">
<ele>321</ele>
<time>2022-08-24T01:05:13Z</time></trkpt>
<trkpt lat="31.78737" lon="34.99843">
<ele>320</ele>
<time>2022-08-24T01:05:17Z</time></trkpt>
<trkpt lat="31.78745" lon="34.99864">
<ele>319</ele>
<time>2022-08-24T01:05:21Z</time></trkpt>
<trkpt lat="31.78757" lon="34.99904">
<ele>316</ele>
<time>2022-08-24T01:05:28Z</time></trkpt>
<trkpt lat="31.78765" lon="34.99918">
<ele>316</ele>
<time>2022-08-24T01:05:31Z</time></trkpt>
<trkpt lat="31.78773" lon="34.99927">
<ele>316</ele>
<time>2022-08-24T01:05:33Z</time></trkpt>
<trkpt lat="31.78784" lon="34.99934">
<ele>318</ele>
<time>2022-08-24T01:05:35Z</time></trkpt>
<trkpt lat="31.78815" lon="34.99949">
<ele>321</ele>
<time>2022-08-24T01:05:42Z</time></trkpt>
<trkpt lat="31.78853" lon="34.99979">
<ele>319</ele>
<time>2022-08-24T01:05:51Z</time></trkpt>
<trkpt lat="31.78881" lon="35.00005">
<ele>316</ele>
<time>2022-08-24T01:05:58Z</time></trkpt>
<trkpt lat="31.78895" lon="35.00011">
<ele>317</ele>
<time>2022-08-24T01:06:01Z</time></trkpt>
<trkpt lat="31.78905" lon="35.00022">
<ele>316</ele>
<time>2022-08-24T01:06:04Z</time></trkpt>
<trkpt lat="31.78941" lon="35.00001">
<ele>324</ele>
<time>2022-08-24T01:06:12Z</time></trkpt>
<trkpt lat="31.78949" lon="35.00003">
<ele>324</ele>
<time>2022-08-24T01:06:14Z</time></trkpt>
<trkpt lat="31.78962" lon="35.00007">
<ele>325</ele>
<time>2022-08-24T01:06:16Z</time></trkpt>
<trkpt lat="31.78982" lon="35.00017">
<ele>326</ele>
<time>2022-08-24T01:06:21Z</time></trkpt>
<trkpt lat="31.79012" lon="35.00034">
<ele>328</ele>
<time>2022-08-24T01:06:28Z</time></trkpt>
<trkpt lat="31.79038" lon="35.00048">
<ele>332</ele>
<time>2022-08-24T01:06:33Z</time></trkpt>
<trkpt lat="31.79052" lon="35.00061">
<ele>333</ele>
<time>2022-08-24T01:06:37Z</time></trkpt>
<trkpt lat="31.79059" lon="35.00073">
<ele>332</ele>
<time>2022-08-24T01:06:39Z</time></trkpt>
<trkpt lat="31.79061" lon="35.00083">
<ele>331</ele>
<time>2022-08-24T01:06:41Z</time></trkpt>
<trkpt lat="31.79057" lon="35.00104">
<ele>331</ele>
<time>2022-08-24T01:06:45Z</time></trkpt>
<trkpt lat="31.79054" lon="35.00113">
<ele>331</ele>
<time>2022-08-24T01:06:46Z</time></trkpt>
<trkpt lat="31.79043" lon="35.00131">
<ele>330</ele>
<time>2022-08-24T01:06:50Z</time></trkpt>
<trkpt lat="31.79036" lon="35.00137">
<ele>330</ele>
<time>2022-08-24T01:06:52Z</time></trkpt>
<trkpt lat="31.79023" lon="35.00144">
<ele>329</ele>
<time>2022-08-24T01:06:55Z</time></trkpt>
<trkpt lat="31.79009" lon="35.00146">
<ele>328</ele>
<time>2022-08-24T01:06:58Z</time></trkpt>
<trkpt lat="31.78991" lon="35.00146">
<ele>326</ele>
<time>2022-08-24T01:07:01Z</time></trkpt>
<trkpt lat="31.7898" lon="35.00149">
<ele>325</ele>
<time>2022-08-24T01:07:03Z</time></trkpt>
<trkpt lat="31.78969" lon="35.00155">
<ele>324</ele>
<time>2022-08-24T01:07:06Z</time></trkpt>
<trkpt lat="31.78956" lon="35.0017">
<ele>325</ele>
<time>2022-08-24T01:07:09Z</time></trkpt>
<trkpt lat="31.78941" lon="35.00199">
<ele>327</ele>
<time>2022-08-24T01:07:15Z</time></trkpt>
<trkpt lat="31.78917" lon="35.00251">
<ele>331</ele>
<time>2022-08-24T01:07:25Z</time></trkpt>
<trkpt lat="31.78909" lon="35.00277">
<ele>332</ele>
<time>2022-08-24T01:07:30Z</time></trkpt>
<trkpt lat="31.78905" lon="35.00299">
<ele>333</ele>
<time>2022-08-24T01:07:34Z</time></trkpt>
<trkpt lat="31.78899" lon="35.00317">
<ele>334</ele>
<time>2022-08-24T01:07:37Z</time></trkpt>
<trkpt lat="31.78893" lon="35.00325">
<ele>334</ele>
<time>2022-08-24T01:07:39Z</time></trkpt>
<trkpt lat="31.78869" lon="35.00347">
<ele>333</ele>
<time>2022-08-24T01:07:45Z</time></trkpt>
<trkpt lat="31.78863" lon="35.00354">
<ele>333</ele>
<time>2022-08-24T01:07:47Z</time></trkpt>
<trkpt lat="31.78856" lon="35.00367">
<ele>335</ele>
<time>2022-08-24T01:07:49Z</time></trkpt>
<trkpt lat="31.78838" lon="35.00418">
<ele>341</ele>
<time>2022-08-24T01:07:59Z</time></trkpt>
<trkpt lat="31.7882" lon="35.00457">
<ele>342</ele>
<time>2022-08-24T01:08:06Z</time></trkpt>
<trkpt lat="31.78817" lon="35.00467">
<ele>343</ele>
<time>2022-08-24T01:08:08Z</time></trkpt>
<trkpt lat="31.78782" lon="35.00546">
<ele>340</ele>
<time>2022-08-24T01:08:23Z</time></trkpt>
<trkpt lat="31.78868" lon="35.00427">
<ele>348</ele>
<time>2022-08-24T01:08:50Z</time></trkpt>
<trkpt lat="31.7888" lon="35.00415">
<ele>348</ele>
<time>2022-08-24T01:08:53Z</time></trkpt>
<trkpt lat="31.7889" lon="35.00408">
<ele>349</ele>
<time>2022-08-24T01:08:55Z</time></trkpt>
<trkpt lat="31.78914" lon="35.00402">
<ele>352</ele>
<time>2022-08-24T01:09:00Z</time></trkpt>
<trkpt lat="31.78941" lon="35.00401">
<ele>355</ele>
<time>2022-08-24T01:09:06Z</time></trkpt>
<trkpt lat="31.79007" lon="35.00407">
<ele>364</ele>
<time>2022-08-24T01:09:19Z</time></trkpt>
<trkpt lat="31.79023" lon="35.00409">
<ele>365</ele>
<time>2022-08-24T01:09:22Z</time></trkpt>
<trkpt lat="31.79137" lon="35.00429">
<ele>374</ele>
<time>2022-08-24T01:09:45Z</time></trkpt>
<trkpt lat="31.79179" lon="35.00436">
<ele>379</ele>
<time>2022-08-24T01:09:54Z</time></trkpt>
<trkpt lat="31.79189" lon="35.00437">
<ele>380</ele>
<time>2022-08-24T01:09:56Z</time></trkpt>
<trkpt lat="31.79279" lon="35.00442">
<ele>389</ele>
<time>2022-08-24T01:10:14Z</time></trkpt>
<trkpt lat="31.79294" lon="35.00446">
<ele>391</ele>
<time>2022-08-24T01:10:17Z</time></trkpt>
<trkpt lat="31.79309" lon="35.00455">
<ele>392</ele>
<time>2022-08-24T01:10:20Z</time></trkpt>
<trkpt lat="31.79293" lon="35.00518">
<ele>392</ele>
<time>2022-08-24T01:10:32Z</time></trkpt>
<trkpt lat="31.79274" lon="35.00538">
<ele>392</ele>
<time>2022-08-24T01:10:37Z</time></trkpt>
<trkpt lat="31.79272" lon="35.00541">
<ele>392</ele>
<time>2022-08-24T01:10:37Z</time></trkpt>
<trkpt lat="31.79108" lon="35.00695">
<ele>392</ele>
<time>2022-08-24T01:11:19Z</time></trkpt>
<trkpt lat="31.79073" lon="35.0072">
<ele>391</ele>
<time>2022-08-24T01:11:28Z</time></trkpt>
<trkpt lat="31.79056" lon="35.00735">
<ele>389</ele>
<time>2022-08-24T01:11:32Z</time></trkpt>
<trkpt lat="31.79024" lon="35.00788">
<ele>386</ele>
<time>2022-08-24T01:11:43Z</time></trkpt>
<trkpt lat="31.79004" lon="35.00817">
<ele>387</ele>
<time>2022-08-24T01:11:49Z</time></trkpt>
<trkpt lat="31.7899" lon="35.00836">
<ele>386</ele>
<time>2022-08-24T01:11:54Z</time></trkpt>
<trkpt lat="31.78978" lon="35.00846">
<ele>385</ele>
<time>2022-08-24T01:11:57Z</time></trkpt>
<trkpt lat="31.78959" lon="35.00855">
<ele>384</ele>
<time>2022-08-24T01:12:01Z</time></trkpt>
<trkpt lat="31.7895" lon="35.00858">
<ele>383</ele>
<time>2022-08-24T01:12:02Z</time></trkpt>
<trkpt lat="31.78909" lon="35.0087">
<ele>381</ele>
<time>2022-08-24T01:12:11Z</time></trkpt>
<trkpt lat="31.78869" lon="35.00886">
<ele>380</ele>
<time>2022-08-24T01:12:19Z</time></trkpt>
<trkpt lat="31.78852" lon="35.00891">
<ele>380</ele>
<time>2022-08-24T01:12:23Z</time></trkpt>
<trkpt lat="31.78809" lon="35.00898">
<ele>377</ele>
<time>2022-08-24T01:12:32Z</time></trkpt>
<trkpt lat="31.78775" lon="35.00912">
<ele>377</ele>
<time>2022-08-24T01:12:39Z</time></trkpt>
<trkpt lat="31.78762" lon="35.00915">
<ele>377</ele>
<time>2022-08-24T01:12:42Z</time></trkpt>
<trkpt lat="31.78749" lon="35.00916">
<ele>376</ele>
<time>2022-08-24T01:12:44Z</time></trkpt>
<trkpt lat="31.78745" lon="35.00915">
<ele>376</ele>
<time>2022-08-24T01:12:45Z</time></trkpt>
<trkpt lat="31.78728" lon="35.00913">
<ele>375</ele>
<time>2022-08-24T01:12:48Z</time></trkpt>
<trkpt lat="31.7869" lon="35.00903">
<ele>372</ele>
<time>2022-08-24T01:12:56Z</time></trkpt>
<trkpt lat="31.78636" lon="35.00893">
<ele>368</ele>
<time>2022-08-24T01:13:07Z</time></trkpt>
<trkpt lat="31.78595" lon="35.00889">
<ele>364</ele>
<time>2022-08-24T01:13:15Z</time></trkpt>
<trkpt lat="31.78567" lon="35.00894">
<ele>364</ele>
<time>2022-08-24T01:13:21Z</time></trkpt>
<trkpt lat="31.7855" lon="35.00901">
<ele>364</ele>
<time>2022-08-24T01:13:25Z</time></trkpt>
<trkpt lat="31.78534" lon="35.00911">
<ele>365</ele>
<time>2022-08-24T01:13:28Z</time></trkpt>
<trkpt lat="31.78521" lon="35.00922">
<ele>365</ele>
<time>2022-08-24T01:13:31Z</time></trkpt>
<trkpt lat="31.78515" lon="35.0093">
<ele>365</ele>
<time>2022-08-24T01:13:33Z</time></trkpt>
<trkpt lat="31.78502" lon="35.00956">
<ele>366</ele>
<time>2022-08-24T01:13:38Z</time></trkpt>
<trkpt lat="31.78499" lon="35.00968">
<ele>367</ele>
<time>2022-08-24T01:13:41Z</time></trkpt>
<trkpt lat="31.78494" lon="35.01001">
<ele>369</ele>
<time>2022-08-24T01:13:46Z</time></trkpt>
<trkpt lat="31.78489" lon="35.01069">
<ele>364</ele>
<time>2022-08-24T01:13:58Z</time></trkpt>
<trkpt lat="31.7849" lon="35.01079">
<ele>364</ele>
<time>2022-08-24T01:14:00Z</time></trkpt>
<trkpt lat="31.78495" lon="35.01101">
<ele>362</ele>
<time>2022-08-24T01:14:03Z</time></trkpt>
<trkpt lat="31.78501" lon="35.01113">
<ele>361</ele>
<time>2022-08-24T01:14:06Z</time></trkpt>
<trkpt lat="31.78512" lon="35.01124">
<ele>360</ele>
<time>2022-08-24T01:14:09Z</time></trkpt>
<trkpt lat="31.78527" lon="35.01132">
<ele>359</ele>
<time>2022-08-24T01:14:12Z</time></trkpt>
<trkpt lat="31.78546" lon="35.01137">
<ele>360</ele>
<time>2022-08-24T01:14:16Z</time></trkpt>
<trkpt lat="31.78552" lon="35.01137">
<ele>360</ele>
<time>2022-08-24T01:14:17Z</time></trkpt>
<trkpt lat="31.78574" lon="35.01129">
<ele>363</ele>
<time>2022-08-24T01:14:22Z</time></trkpt>
<trkpt lat="31.78592" lon="35.01118">
<ele>366</ele>
<time>2022-08-24T01:14:26Z</time></trkpt>
<trkpt lat="31.78608" lon="35.01105">
<ele>367</ele>
<time>2022-08-24T01:14:30Z</time></trkpt>
<trkpt lat="31.78633" lon="35.01078">
<ele>370</ele>
<time>2022-08-24T01:14:37Z</time></trkpt>
<trkpt lat="31.78645" lon="35.01069">
<ele>370</ele>
<time>2022-08-24T01:14:39Z</time></trkpt>
<trkpt lat="31.78655" lon="35.01062">
<ele>370</ele>
<time>2022-08-24T01:14:42Z</time></trkpt>
<trkpt lat="31.78677" lon="35.01054">
<ele>370</ele>
<time>2022-08-24T01:14:46Z</time></trkpt>
<trkpt lat="31.78707" lon="35.01051">
<ele>371</ele>
<time>2022-08-24T01:14:52Z</time></trkpt>
<trkpt lat="31.78765" lon="35.01054">
<ele>371</ele>
<time>2022-08-24T01:15:04Z</time></trkpt>
<trkpt lat="31.78865" lon="35.01044">
<ele>372</ele>
<time>2022-08-24T01:15:24Z</time></trkpt>
<trkpt lat="31.7888" lon="35.01046">
<ele>371</ele>
<time>2022-08-24T01:15:27Z</time></trkpt>
<trkpt lat="31.78898" lon="35.01052">
<ele>369</ele>
<time>2022-08-24T01:15:31Z</time></trkpt>
<trkpt lat="31.78945" lon="35.0106">
<ele>366</ele>
<time>2022-08-24T01:15:40Z</time></trkpt>
<trkpt lat="31.78975" lon="35.01052">
<ele>367</ele>
<time>2022-08-24T01:15:47Z</time></trkpt>
<trkpt lat="31.78994" lon="35.0104">
<ele>369</ele>
<time>2022-08-24T01:15:51Z</time></trkpt>
<trkpt lat="31.79015" lon="35.01028">
<ele>372</ele>
<time>2022-08-24T01:15:56Z</time></trkpt>
<trkpt lat="31.79025" lon="35.01026">
<ele>372</ele>
<time>2022-08-24T01:15:58Z</time></trkpt>
<trkpt lat="31.79051" lon="35.01029">
<ele>370</ele>
<time>2022-08-24T01:16:03Z</time></trkpt>
<trkpt lat="31.79116" lon="35.01045">
<ele>366</ele>
<time>2022-08-24T01:16:16Z</time></trkpt>
<trkpt lat="31.79122" lon="35.01046">
<ele>366</ele>
<time>2022-08-24T01:16:17Z</time></trkpt>
<trkpt lat="31.79195" lon="35.0107">
<ele>363</ele>
<time>2022-08-24T01:16:33Z</time></trkpt>
<trkpt lat="31.79217" lon="35.01075">
<ele>362</ele>
<time>2022-08-24T01:16:37Z</time></trkpt>
<trkpt lat="31.79243" lon="35.01086">
<ele>361</ele>
<time>2022-08-24T01:16:43Z</time></trkpt>
<trkpt lat="31.79259" lon="35.01104">
<ele>359</ele>
<time>2022-08-24T01:16:47Z</time></trkpt>
<trkpt lat="31.79274" lon="35.01128">
<ele>357</ele>
<time>2022-08-24T01:16:52Z</time></trkpt>
<trkpt lat="31.79292" lon="35.01165">
<ele>355</ele>
<time>2022-08-24T01:16:59Z</time></trkpt>
<trkpt lat="31.79319" lon="35.01204">
<ele>353</ele>
<time>2022-08-24T01:17:08Z</time></trkpt>
<trkpt lat="31.79341" lon="35.01256">
<ele>353</ele>
<time>2022-08-24T01:17:18Z</time></trkpt>
<trkpt lat="31.79384" lon="35.01316">
<ele>351</ele>
<time>2022-08-24T01:17:31Z</time></trkpt>
<trkpt lat="31.79404" lon="35.01368">
<ele>349</ele>
<time>2022-08-24T01:17:41Z</time></trkpt>
<trkpt lat="31.79418" lon="35.01387">
<ele>348</ele>
<time>2022-08-24T01:17:45Z</time></trkpt>
<trkpt lat="31.79457" lon="35.014">
<ele>346</ele>
<time>2022-08-24T01:17:53Z</time></trkpt>
<trkpt lat="31.79593" lon="35.01426">
<ele>336</ele>
<time>2022-08-24T01:18:21Z</time></trkpt>
<trkpt lat="31.79602" lon="35.01424">
<ele>336</ele>
<time>2022-08-24T01:18:23Z</time></trkpt>
<trkpt lat="31.79641" lon="35.01431">
<ele>333</ele>
<time>2022-08-24T01:18:31Z</time></trkpt>
<trkpt lat="31.79674" lon="35.01433">
<ele>330</ele>
<time>2022-08-24T01:18:37Z</time></trkpt>
<trkpt lat="31.79701" lon="35.0143">
<ele>328</ele>
<time>2022-08-24T01:18:43Z</time></trkpt>
<trkpt lat="31.79767" lon="35.01408">
<ele>323</ele>
<time>2022-08-24T01:18:56Z</time></trkpt>
<trkpt lat="31.79799" lon="35.01392">
<ele>320</ele>
<time>2022-08-24T01:19:03Z</time></trkpt>
<trkpt lat="31.7981" lon="35.01377">
<ele>320</ele>
<time>2022-08-24T01:19:07Z</time></trkpt>
<trkpt lat="31.79818" lon="35.01369">
<ele>319</ele>
<time>2022-08-24T01:19:09Z</time></trkpt>
<trkpt lat="31.79836" lon="35.01387">
<ele>315</ele>
<time>2022-08-24T01:19:14Z</time></trkpt>
<trkpt lat="31.79851" lon="35.01341">
<ele>315</ele>
<time>2022-08-24T01:19:22Z</time></trkpt>
<trkpt lat="31.79855" lon="35.01334">
<ele>315</ele>
<time>2022-08-24T01:19:23Z</time></trkpt>
<trkpt lat="31.79859" lon="35.01329">
<ele>314</ele>
<time>2022-08-24T01:19:25Z</time></trkpt>
<trkpt lat="31.79864" lon="35.01326">
<ele>313</ele>
<time>2022-08-24T01:19:26Z</time></trkpt>
<trkpt lat="31.7987" lon="35.01323">
<ele>312</ele>
<time>2022-08-24T01:19:27Z</time></trkpt>
<trkpt lat="31.79875" lon="35.01322">
<ele>312</ele>
<time>2022-08-24T01:19:28Z</time></trkpt>
<trkpt lat="31.79881" lon="35.01321">
<ele>310</ele>
<time>2022-08-24T01:19:29Z</time></trkpt>
<trkpt lat="31.79892" lon="35.01323">
<ele>309</ele>
<time>2022-08-24T01:19:31Z</time></trkpt>
<trkpt lat="31.799" lon="35.01326">
<ele>307</ele>
<time>2022-08-24T01:19:33Z</time></trkpt>
<trkpt lat="31.7989" lon="35.01381">
<ele>309</ele>
<time>2022-08-24T01:19:43Z</time></trkpt>
<trkpt lat="31.79939" lon="35.01397">
<ele>304</ele>
<time>2022-08-24T01:19:53Z</time></trkpt>
<trkpt lat="31.79944" lon="35.01398">
<ele>304</ele>
<time>2022-08-24T01:19:54Z</time></trkpt>
<trkpt lat="31.79956" lon="35.01404">
<ele>304</ele>
<time>2022-08-24T01:19:57Z</time></trkpt>
<trkpt lat="31.79972" lon="35.01403">
<ele>303</ele>
<time>2022-08-24T01:20:00Z</time></trkpt>
<trkpt lat="31.80014" lon="35.01407">
<ele>301</ele>
<time>2022-08-24T01:20:08Z</time></trkpt>
<trkpt lat="31.80064" lon="35.01419">
<ele>299</ele>
<time>2022-08-24T01:20:18Z</time></trkpt>
<trkpt lat="31.80112" lon="35.01437">
<ele>301</ele>
<time>2022-08-24T01:20:29Z</time></trkpt>
<trkpt lat="31.80148" lon="35.01454">
<ele>302</ele>
<time>2022-08-24T01:20:36Z</time></trkpt>
<trkpt lat="31.80168" lon="35.01466">
<ele>302</ele>
<time>2022-08-24T01:20:41Z</time></trkpt>
<trkpt lat="31.80223" lon="35.0151">
<ele>306</ele>
<time>2022-08-24T01:20:54Z</time></trkpt>
<trkpt lat="31.80278" lon="35.01553">
<ele>310</ele>
<time>2022-08-24T01:21:07Z</time></trkpt>
<trkpt lat="31.80324" lon="35.01577">
<ele>312</ele>
<time>2022-08-24T01:21:17Z</time></trkpt>
<trkpt lat="31.80433" lon="35.0164">
<ele>325</ele>
<time>2022-08-24T01:21:42Z</time></trkpt>
<trkpt lat="31.80487" lon="35.0167">
<ele>327</ele>
<time>2022-08-24T01:21:54Z</time></trkpt>
<trkpt lat="31.80551" lon="35.01703">
<ele>324</ele>
<time>2022-08-24T01:22:08Z</time></trkpt>
<trkpt lat="31.80583" lon="35.01722">
<ele>321</ele>
<time>2022-08-24T01:22:15Z</time></trkpt>
<trkpt lat="31.80668" lon="35.01743">
<ele>313</ele>
<time>2022-08-24T01:22:32Z</time></trkpt>
<trkpt lat="31.80685" lon="35.01749">
<ele>312</ele>
<time>2022-08-24T01:22:36Z</time></trkpt>
<trkpt lat="31.80724" lon="35.01769">
<ele>312</ele>
<time>2022-08-24T01:22:44Z</time></trkpt>
<trkpt lat="31.80733" lon="35.01773">
<ele>311</ele>
<time>2022-08-24T01:22:46Z</time></trkpt>
<trkpt lat="31.80743" lon="35.01773">
<ele>311</ele>
<time>2022-08-24T01:22:48Z</time></trkpt>
<trkpt lat="31.80771" lon="35.0176">
<ele>309</ele>
<time>2022-08-24T01:22:54Z</time></trkpt>
<trkpt lat="31.80793" lon="35.0174">
<ele>308</ele>
<time>2022-08-24T01:23:00Z</time></trkpt>
<trkpt lat="31.8081" lon="35.01731">
<ele>308</ele>
<time>2022-08-24T01:23:04Z</time></trkpt>
<trkpt lat="31.80836" lon="35.01738">
<ele>306</ele>
<time>2022-08-24T01:23:09Z</time></trkpt>
<trkpt lat="31.80853" lon="35.01754">
<ele>305</ele>
<time>2022-08-24T01:23:13Z</time></trkpt>
<trkpt lat="31.80872" lon="35.01791">
<ele>304</ele>
<time>2022-08-24T01:23:21Z</time></trkpt>
<trkpt lat="31.80948" lon="35.01825">
<ele>301</ele>
<time>2022-08-24T01:23:37Z</time></trkpt>
<trkpt lat="31.80956" lon="35.01809">
<ele>301</ele>
<time>2022-08-24T01:23:40Z</time></trkpt>
<trkpt lat="31.80964" lon="35.01771">
<ele>300</ele>
<time>2022-08-24T01:23:47Z</time></trkpt>
<trkpt lat="31.80964" lon="35.01768">
<ele>300</ele>
<time>2022-08-24T01:23:47Z</time></trkpt>
<trkpt lat="31.80967" lon="35.01754">
<ele>299</ele>
<time>2022-08-24T01:23:50Z</time></trkpt>
<trkpt lat="31.80982" lon="35.01707">
<ele>298</ele>
<time>2022-08-24T01:23:58Z</time></trkpt>
<trkpt lat="31.81001" lon="35.01656">
<ele>297</ele>
<time>2022-08-24T01:24:08Z</time></trkpt>
<trkpt lat="31.81015" lon="35.01612">
<ele>297</ele>
<time>2022-08-24T01:24:16Z</time></trkpt>
<trkpt lat="31.81028" lon="35.01578">
<ele>297</ele>
<time>2022-08-24T01:24:22Z</time></trkpt>
<trkpt lat="31.81035" lon="35.01549">
<ele>298</ele>
<time>2022-08-24T01:24:27Z</time></trkpt>
<trkpt lat="31.81047" lon="35.01519">
<ele>298</ele>
<time>2022-08-24T01:24:33Z</time></trkpt>
</trkseg>
</trk>
</gpx>